M I D A S
Marine Information and Data Acquisition System
Tripno 1522 of the Zeeleeuw from 2008-07-18 07:56:38 to 2008-07-18 15:00:26
Back to CruiseResearch ActivitiesStationsMapUnderway DataData graphs

EquipmentUnitsComment
TimeDGPSUTC
LatitudeDGPSDM.mWGS84
LongitudeDGPSDM.mWGS84
TemperatureSBE03/SBE38deg celciusITS90
ConductivitySBE21S/mITS90
SalinitySBE21 Practical Salinity Units
ChlorophylAChelsea fluorimeterg/lCalibrated in Aceton
Missing or incorrect values are displayed as -999
Sea surface data collected by the RV Zeeleeuw from 2008-07-18 08:00:17 to 2008-07-18 15:03:24
                                                                                    Next 1000 lines
Time Latitude Longitude Temperature Conductivity Salinity ChlorophylA
2008-07-18 08:00:26 51°13.623 2°56.045 21.3155 0.090164 0.495177 -1.627401
2008-07-18 08:00:32 51°13.624 2°56.043 21.3141 0.090164 0.495186 -1.627401
2008-07-18 08:00:37 51°13.624 2°56.041 21.3181 0.090164 0.495186 -1.592577
2008-07-18 08:00:41 51°13.625 2°56.039 21.3184 0.090164 0.495186 -1.592577
2008-07-18 08:00:46 51°13.625 2°56.036 21.3176 0.090164 0.495186 -1.627401
2008-07-18 08:00:51 51°13.626 2°56.033 21.3198 0.090164 0.495186 -1.627401
2008-07-18 08:00:57 51°13.627 2°56.029 21.3186 0.090164 0.495186 -1.627401
2008-07-18 08:01:01 51°13.628 2°56.027 21.3196 0.090164 0.495195 -1.627401
2008-07-18 08:01:06 51°13.629 2°56.023 21.3194 0.090164 0.495204 -1.627401
2008-07-18 08:01:11 51°13.631 2°56.019 21.3194 0.090164 0.495204 -1.627401
2008-07-18 08:01:16 51°13.632 2°56.015 21.32 0.090164 0.495204 -1.627401
2008-07-18 08:01:21 51°13.633 2°56.011 21.319 0.090164 0.495204 -1.627401
2008-07-18 08:01:26 51°13.635 2°56.006 21.3191 0.090164 0.495204 -1.627401
2008-07-18 08:01:31 51°13.636 2°56.001 21.3194 0.090164 0.495204 -1.627401
2008-07-18 08:01:37 51°13.637 2°55.995 21.3182 0.090164 0.495204 -1.627401
2008-07-18 08:01:42 51°13.638 2°55.989 21.3229 0.090164 0.495204 -1.627401
2008-07-18 08:01:47 51°13.64 2°55.984 21.3243 0.090164 0.495204 -1.592577
2008-07-18 08:01:51 51°13.64 2°55.98 21.3273 0.090164 0.495204 -1.627401
2008-07-18 08:01:56 51°13.641 2°55.974 21.3238 0.090164 0.495195 -1.592577
2008-07-18 08:02:02 51°13.642 2°55.969 21.325 0.090164 0.495204 -1.627401
2008-07-18 08:02:06 51°13.642 2°55.966 21.3241 0.090164 0.495221 -1.592577
2008-07-18 08:02:11 51°13.643 2°55.963 21.3245 0.090164 0.495221 -1.592577
2008-07-18 08:02:17 51°13.643 2°55.96 21.3243 0.090164 0.495239 -1.627401
2008-07-18 08:02:22 51°13.644 2°55.958 21.323 0.090164 0.495256 -1.627401
2008-07-18 08:02:26 51°13.644 2°55.956 21.3224 0.090164 0.495265 -1.627401
2008-07-18 08:02:31 51°13.644 2°55.955 21.3245 0.090164 0.495265 -1.592577
2008-07-18 08:02:36 51°13.645 2°55.952 21.3242 0.090164 0.495256 -1.627401
2008-07-18 08:02:41 51°13.646 2°55.949 21.3236 0.090164 0.495256 -1.627401
2008-07-18 08:02:47 51°13.647 2°55.946 21.3232 0.090164 0.495248 -1.627401
2008-07-18 08:02:52 51°13.648 2°55.942 21.3266 0.090164 0.495248 -1.627401
2008-07-18 08:02:56 51°13.649 2°55.939 21.3228 0.090164 0.495248 -1.592577
2008-07-18 08:03:01 51°13.65 2°55.934 21.3307 0.090164 0.495239 -1.627401
2008-07-18 08:03:06 51°13.652 2°55.929 21.328 0.090164 0.495248 -1.627401
2008-07-18 08:03:11 51°13.653 2°55.924 21.3297 0.090164 0.495248 -1.627401
2008-07-18 08:03:17 51°13.656 2°55.918 21.3284 0.090164 0.495248 -1.627401
2008-07-18 08:03:22 51°13.657 2°55.912 21.3294 0.090164 0.495248 -1.627401
2008-07-18 08:03:26 51°13.659 2°55.908 21.3284 0.090164 0.495256 -1.627401
2008-07-18 08:03:31 51°13.66 2°55.902 21.3301 0.090164 0.495256 -1.627401
2008-07-18 08:03:36 51°13.662 2°55.895 21.3288 0.090164 0.495265 -1.627401
2008-07-18 08:03:41 51°13.664 2°55.889 21.3296 0.090164 0.495265 -1.627401
2008-07-18 08:03:46 51°13.666 2°55.882 21.3301 0.090164 0.495265 -1.592577
2008-07-18 08:03:51 51°13.668 2°55.875 21.3303 0.090164 0.495265 -1.627401
2008-07-18 08:03:57 51°13.671 2°55.867 21.3312 0.090164 0.495274 -1.627401
2008-07-18 08:04:02 51°13.673 2°55.86 21.3317 0.090164 0.495274 -1.627401
2008-07-18 08:04:06 51°13.675 2°55.855 21.3319 0.090164 0.495274 -1.627401
2008-07-18 08:04:11 51°13.677 2°55.848 21.3326 0.090164 0.495274 -1.627401
2008-07-18 08:04:16 51°13.679 2°55.84 21.3325 0.090164 0.495274 -1.592577
2008-07-18 08:04:22 51°13.681 2°55.831 21.3355 0.090164 0.495274 -1.627401
2008-07-18 08:04:27 51°13.683 2°55.824 21.3354 0.090164 0.495274 -1.592577
2008-07-18 08:04:32 51°13.685 2°55.818 21.3356 0.090164 0.495274 -1.627401
2008-07-18 08:04:37 51°13.687 2°55.811 21.3356 0.090164 0.495274 -1.627401
2008-07-18 08:04:42 51°13.688 2°55.805 21.3362 0.090164 0.495274 -1.627401
2008-07-18 08:04:47 51°13.69 2°55.798 21.3354 0.090164 0.495274 -1.627401
2008-07-18 08:04:51 51°13.691 2°55.793 21.3361 0.090164 0.495283 -1.627401
2008-07-18 08:04:56 51°13.692 2°55.787 21.3369 0.090164 0.495291 -1.627401
2008-07-18 08:05:01 51°13.693 2°55.782 21.3384 0.090164 0.495283 -1.627401
2008-07-18 08:05:06 51°13.694 2°55.776 21.3383 0.090164 0.495283 -1.627401
2008-07-18 08:05:11 51°13.695 2°55.771 21.3395 0.090164 0.495283 -1.627401
2008-07-18 08:05:16 51°13.696 2°55.767 21.3393 0.090164 0.495291 -1.627401
2008-07-18 08:05:21 51°13.697 2°55.764 21.3411 0.090164 0.495291 -1.592577
2008-07-18 08:05:25 51°13.697 2°55.761 21.3408 0.090164 0.4953 -1.627401
2008-07-18 08:05:31 51°13.698 2°55.759 21.3415 0.090164 0.495291 -1.627401
2008-07-18 08:05:36 51°13.698 2°55.758 21.3405 0.090164 0.495291 -1.592577
2008-07-18 08:05:41 51°13.699 2°55.758 21.3423 0.090164 0.495291 -1.592577
2008-07-18 08:05:46 51°13.699 2°55.759 21.3425 0.090164 0.4953 -1.627401
2008-07-18 08:05:50 51°13.7 2°55.76 21.345 0.090164 0.4953 -1.592577
2008-07-18 08:05:56 51°13.701 2°55.762 21.3441 0.090164 0.4953 -1.592577
2008-07-18 08:06:01 51°13.702 2°55.764 21.3464 0.090164 0.495309 -1.627401
2008-07-18 08:06:06 51°13.704 2°55.767 21.346 0.090164 0.495309 -1.627401
2008-07-18 08:06:11 51°13.706 2°55.77 21.3466 0.090164 0.495309 -1.627401
2008-07-18 08:06:16 51°13.708 2°55.772 21.3475 0.090164 0.495327 -1.627401
2008-07-18 08:06:21 51°13.71 2°55.775 21.3485 0.090164 0.495327 -1.627401
2008-07-18 08:06:26 51°13.712 2°55.776 21.3514 0.090164 0.495327 -1.627401
2008-07-18 08:06:30 51°13.713 2°55.778 21.352 0.090164 0.495318 -1.592577
2008-07-18 08:06:35 51°13.714 2°55.779 21.3529 0.090164 0.495318 -1.592577
2008-07-18 08:06:40 51°13.715 2°55.779 21.3534 0.090164 0.495318 -1.592577
2008-07-18 08:06:46 51°13.716 2°55.78 21.3512 0.090164 0.495309 -1.592577
2008-07-18 08:06:51 51°13.716 2°55.781 21.3489 0.090164 0.495309 -1.627401
2008-07-18 08:06:56 51°13.716 2°55.781 21.3488 0.090164 0.4953 -1.627401
2008-07-18 08:07:00 51°13.715 2°55.781 21.3541 0.090164 0.4953 -1.627401
2008-07-18 08:07:05 51°13.714 2°55.781 21.3564 0.090164 0.4953 -1.592577
2008-07-18 08:07:10 51°13.713 2°55.78 21.3561 0.090164 0.4953 -1.592577
2008-07-18 08:07:16 51°13.711 2°55.78 21.3555 0.090164 0.495309 -1.592577
2008-07-18 08:07:21 51°13.71 2°55.779 21.3539 0.090164 0.495309 -1.592577
2008-07-18 08:07:26 51°13.708 2°55.779 21.3576 0.090164 0.495318 -1.627401
2008-07-18 08:07:31 51°13.706 2°55.778 21.3573 0.090164 0.495318 -1.627401
2008-07-18 08:07:37 51°13.704 2°55.778 21.3578 0.090164 0.495327 -1.627401
2008-07-18 08:07:42 51°13.703 2°55.777 21.3575 0.090164 0.495327 -1.627401
2008-07-18 08:07:47 51°13.703 2°55.777 21.361 0.090164 0.495327 -1.592577
2008-07-18 08:07:52 51°13.703 2°55.777 21.3606 0.090164 0.495327 -1.627401
2008-07-18 08:07:57 51°13.704 2°55.777 21.3626 0.090164 0.495327 -1.627401
2008-07-18 08:08:01 51°13.706 2°55.777 21.3635 0.090164 0.495327 -1.627401
2008-07-18 08:08:07 51°13.708 2°55.776 21.3662 0.090164 0.495327 -1.627401
2008-07-18 08:08:10 51°13.709 2°55.776 21.3589 0.090164 0.495327 -1.627401
2008-07-18 08:08:17 51°13.713 2°55.774 21.3605 0.090164 0.495335 -1.592577
2008-07-18 08:08:21 51°13.715 2°55.772 21.3643 0.090164 0.495335 -1.627401
2008-07-18 08:08:26 51°13.718 2°55.769 21.3683 0.090164 0.495335 -1.592577
2008-07-18 08:08:30 51°13.721 2°55.766 21.3679 0.090164 0.495335 -1.592577
2008-07-18 08:08:36 51°13.725 2°55.761 21.3714 0.090164 0.495335 -1.592577
2008-07-18 08:08:41 51°13.729 2°55.755 21.3694 0.090164 0.495335 -1.592577
2008-07-18 08:08:46 51°13.733 2°55.75 21.3697 0.090164 0.495335 -1.627401
2008-07-18 08:08:51 51°13.737 2°55.743 21.369 0.090164 0.495335 -1.627401
2008-07-18 08:08:56 51°13.741 2°55.736 21.3699 0.090164 0.495327 -1.627401
2008-07-18 08:09:01 51°13.746 2°55.729 21.3726 0.090164 0.495327 -1.627401
2008-07-18 08:09:06 51°13.75 2°55.722 21.3719 0.090164 0.495327 -1.592577
2008-07-18 08:09:11 51°13.756 2°55.714 21.3735 0.090164 0.495327 -1.592577
2008-07-18 08:09:16 51°13.761 2°55.706 21.3742 0.090164 0.495335 -1.592577
2008-07-18 08:09:21 51°13.767 2°55.698 21.3758 0.090164 0.495327 -1.592577
2008-07-18 08:09:26 51°13.773 2°55.69 21.3787 0.090164 0.495335 -1.592577
2008-07-18 08:09:31 51°13.779 2°55.682 21.3765 0.090164 0.495344 -1.592577
2008-07-18 08:09:36 51°13.785 2°55.674 21.3784 0.090164 0.495344 -1.592577
2008-07-18 08:09:41 51°13.792 2°55.665 21.3759 0.090164 0.495344 -1.592577
2008-07-18 08:09:46 51°13.799 2°55.657 21.3786 0.090164 0.495344 -1.627401
2008-07-18 08:09:51 51°13.806 2°55.649 21.3798 0.090164 0.495344 -1.592577
2008-07-18 08:09:56 51°13.814 2°55.642 21.3818 0.090164 0.495344 -1.592577
2008-07-18 08:10:01 51°13.821 2°55.634 21.382 0.090164 0.495344 -1.592577
2008-07-18 08:10:05 51°13.827 2°55.629 21.3831 0.090164 0.495344 -1.592577
2008-07-18 08:10:10 51°13.835 2°55.621 21.3813 0.090164 0.495344 -1.592577
2008-07-18 08:10:15 51°13.843 2°55.614 21.3829 0.090164 0.495353 -1.592577
2008-07-18 08:10:20 51°13.851 2°55.607 21.3831 0.090164 0.495353 -1.627401
2008-07-18 08:10:26 51°13.861 2°55.599 21.3863 0.090164 0.495353 -1.627401
2008-07-18 08:10:30 51°13.867 2°55.593 21.386 0.090164 0.495362 -1.592577
2008-07-18 08:10:35 51°13.875 2°55.586 21.3878 0.090164 0.495362 -1.627401
2008-07-18 08:10:40 51°13.884 2°55.58 21.3857 0.090164 0.495362 -1.627401
2008-07-18 08:10:45 51°13.892 2°55.573 21.389 0.090164 0.49537 -1.627401
2008-07-18 08:10:50 51°13.901 2°55.567 21.3878 0.090164 0.495379 -1.592577
2008-07-18 08:10:55 51°13.909 2°55.561 21.3914 0.090164 0.49537 -1.592577
2008-07-18 08:11:00 51°13.918 2°55.554 21.3897 0.090164 0.49537 -1.627401
2008-07-18 08:11:05 51°13.926 2°55.548 21.3908 0.090164 0.49537 -1.627401
2008-07-18 08:11:09 51°13.933 2°55.544 21.3911 0.090164 0.49537 -1.627401
2008-07-18 08:11:15 51°13.944 2°55.536 21.3908 0.090164 0.49537 -1.627401
2008-07-18 08:11:20 51°13.952 2°55.53 21.3915 0.090164 0.49537 -1.592577
2008-07-18 08:11:25 51°13.961 2°55.523 21.3919 0.090164 0.49537 -1.627401
2008-07-18 08:11:30 51°13.969 2°55.517 21.3941 0.090164 0.49537 -1.627401
2008-07-18 08:11:35 51°13.978 2°55.511 21.3924 0.090164 0.495379 -1.592577
2008-07-18 08:11:39 51°13.985 2°55.505 21.3928 0.090164 0.495379 -1.592577
2008-07-18 08:11:44 51°13.993 2°55.499 21.3924 0.090164 0.495379 -1.627401
2008-07-18 08:11:49 51°14.002 2°55.492 21.3941 0.090164 0.495379 -1.592577
2008-07-18 08:11:54 51°14.011 2°55.486 21.3946 0.090164 0.495379 -1.627401
2008-07-18 08:11:59 51°14.019 2°55.48 21.3952 0.090164 0.495379 -1.592577
2008-07-18 08:12:03 51°14.026 2°55.475 21.3948 0.090164 0.495388 -1.592577
2008-07-18 08:12:08 51°14.035 2°55.468 21.3959 0.090164 0.495388 -1.592577
2008-07-18 08:12:14 51°14.045 2°55.461 21.3968 0.090164 0.495379 -1.592577
2008-07-18 08:12:19 51°14.054 2°55.454 21.3976 0.090164 0.495388 -1.627401
2008-07-18 08:12:24 51°14.063 2°55.448 21.3976 0.090164 0.495388 -1.592577
2008-07-18 08:12:29 51°14.071 2°55.441 21.3983 0.090164 0.495388 -1.627401
2008-07-18 08:12:34 51°14.08 2°55.434 21.3984 0.090164 0.495388 -1.592577
2008-07-18 08:12:40 51°14.091 2°55.425 21.3983 0.090164 0.495388 -1.592577
2008-07-18 08:12:44 51°14.098 2°55.419 21.3992 0.090164 0.495388 -1.592577
2008-07-18 08:12:48 51°14.106 2°55.414 21.3985 0.090164 0.495388 -1.592577
2008-07-18 08:12:54 51°14.117 2°55.404 21.401 0.090164 0.495379 -1.627401
2008-07-18 08:13:00 51°14.129 2°55.395 21.4012 0.090164 0.495388 -1.627401
2008-07-18 08:13:05 51°14.138 2°55.387 21.4035 0.090164 0.495388 -1.627401
2008-07-18 08:13:10 51°14.148 2°55.379 21.4033 0.090164 0.495388 -1.627401
2008-07-18 08:13:14 51°14.156 2°55.372 21.4015 0.090164 0.495388 -1.592577
2008-07-18 08:13:19 51°14.166 2°55.364 21.4069 0.090164 0.495388 -1.592577
2008-07-18 08:13:26 51°14.18 2°55.35 21.4056 0.090164 0.495397 -1.627401
2008-07-18 08:13:29 51°14.186 2°55.344 21.4071 0.090164 0.495397 -1.592577
2008-07-18 08:13:35 51°14.198 2°55.331 21.4035 0.090164 0.495397 -1.592577
2008-07-18 08:13:39 51°14.205 2°55.323 21.4106 0.090164 0.495397 -1.592577
2008-07-18 08:13:45 51°14.217 2°55.309 21.4073 0.090164 0.495397 -1.592577
2008-07-18 08:13:50 51°14.227 2°55.296 21.4105 0.090164 0.495397 -1.592577
2008-07-18 08:13:55 51°14.236 2°55.283 21.4056 0.090164 0.495397 -1.592577
2008-07-18 08:14:00 51°14.246 2°55.269 21.4103 0.090164 0.495388 -1.592577
2008-07-18 08:14:05 51°14.255 2°55.255 21.4048 0.090164 0.495388 -1.592577
2008-07-18 08:14:10 51°14.264 2°55.24 21.404 0.090164 0.495388 -1.592577
2008-07-18 08:14:15 51°14.273 2°55.224 21.407 0.090164 0.495388 -1.592577
2008-07-18 08:14:19 51°14.28 2°55.212 21.4088 0.090164 0.495388 -1.592577
2008-07-18 08:14:25 51°14.291 2°55.193 21.4083 0.090164 0.495388 -1.627401
2008-07-18 08:14:29 51°14.298 2°55.18 21.4106 0.090164 0.495397 -1.592577
2008-07-18 08:14:35 51°14.309 2°55.161 21.4103 0.090164 0.495397 -1.592577
2008-07-18 08:14:40 51°14.318 2°55.144 21.412 0.090164 0.495397 -1.592577
2008-07-18 08:14:45 51°14.327 2°55.127 21.4142 0.090164 0.495406 -1.592577
2008-07-18 08:14:49 51°14.334 2°55.114 21.4164 0.090164 0.495406 -1.627401
2008-07-18 08:14:54 51°14.343 2°55.097 21.4104 0.090164 0.495423 -1.627401
2008-07-18 08:14:59 51°14.352 2°55.079 21.4189 0.090164 0.495423 -1.592577
2008-07-18 08:15:04 51°14.361 2°55.062 21.415 0.090164 0.495432 -1.592577
2008-07-18 08:15:09 51°14.37 2°55.044 21.4125 0.090164 0.495432 -1.592577
2008-07-18 08:15:14 51°14.379 2°55.027 21.4202 0.090164 0.495432 -1.627401
2008-07-18 08:15:19 51°14.389 2°55.01 21.422 0.090164 0.495432 -1.592577
2008-07-18 08:15:24 51°14.399 2°54.992 21.4198 0.090164 0.495423 -1.592577
2008-07-18 08:15:28 51°14.406 2°54.978 21.4184 0.090164 0.495423 -1.592577
2008-07-18 08:15:33 51°14.416 2°54.96 21.4156 0.090164 0.495414 -1.592577
2008-07-18 08:15:38 51°14.425 2°54.942 21.4152 0.090164 0.495414 -1.592577
2008-07-18 08:15:44 51°14.438 2°54.922 21.42 0.090164 0.495406 -1.592577
2008-07-18 08:15:48 51°14.446 2°54.909 21.4186 0.090164 0.495397 -1.627401
2008-07-18 08:15:52 51°14.454 2°54.895 21.4247 0.090164 0.495397 -1.627401
2008-07-18 08:15:58 51°14.467 2°54.876 21.4099 0.090164 0.495406 -1.592577
2008-07-18 08:16:03 51°14.478 2°54.86 21.4127 0.090164 0.495414 -1.592577
2008-07-18 08:16:08 51°14.49 2°54.846 21.4158 0.090164 0.495414 -1.592577
2008-07-18 08:16:13 51°14.503 2°54.833 21.4136 0.090164 0.495423 -1.592577
2008-07-18 08:16:17 51°14.513 2°54.822 21.4013 0.090164 0.495432 -1.592577
2008-07-18 08:16:23 51°14.528 2°54.809 21.416 0.090164 0.495432 -1.592577
2008-07-18 08:16:28 51°14.542 2°54.799 21.4257 0.090164 0.495432 -1.627401
2008-07-18 08:16:33 51°14.556 2°54.792 21.4316 0.090164 0.495432 -1.627401
2008-07-18 08:16:37 51°14.567 2°54.786 21.4325 0.090164 0.495432 -1.627401
2008-07-18 08:16:42 51°14.582 2°54.78 21.4173 0.090164 0.495441 -1.627401
2008-07-18 08:16:47 51°14.597 2°54.775 21.4306 0.090164 0.49545 -1.627401
2008-07-18 08:16:53 51°14.616 2°54.771 21.433 0.090164 0.495458 -1.627401
2008-07-18 08:16:57 51°14.628 2°54.767 21.4383 0.090164 0.495476 -1.627401
2008-07-18 08:17:02 51°14.644 2°54.762 21.4181 0.090164 0.495485 -1.627401
2008-07-18 08:17:07 51°14.659 2°54.757 21.4241 0.090164 0.495485 -1.627401
2008-07-18 08:17:12 51°14.675 2°54.752 21.4173 0.090164 0.495476 -1.592577
2008-07-18 08:17:17 51°14.691 2°54.746 21.4222 0.090164 0.495458 -1.627401
2008-07-18 08:17:22 51°14.706 2°54.74 21.43 0.090164 0.495441 -1.592577
2008-07-18 08:17:27 51°14.722 2°54.734 21.434 0.090164 0.495441 -1.627401
2008-07-18 08:17:32 51°14.738 2°54.729 21.4319 0.090164 0.495441 -1.592577
2008-07-18 08:17:37 51°14.754 2°54.723 21.4379 0.090164 0.495441 -1.592577
2008-07-18 08:17:42 51°14.77 2°54.717 21.4324 0.090164 0.49545 -1.592577
2008-07-18 08:17:47 51°14.786 2°54.711 21.4406 0.090164 0.495458 -1.627401
2008-07-18 08:17:52 51°14.802 2°54.706 21.4357 0.090164 0.495476 -1.592577
2008-07-18 08:17:57 51°14.818 2°54.7 21.4428 0.090164 0.495493 -1.627401
2008-07-18 08:18:02 51°14.834 2°54.695 21.4348 0.090164 0.495511 -1.627401
2008-07-18 08:18:07 51°14.85 2°54.689 21.4597 0.090164 0.495511 -1.627401
2008-07-18 08:18:12 51°14.865 2°54.684 21.4254 0.090164 0.495529 -1.592577
2008-07-18 08:18:17 51°14.881 2°54.678 21.4408 0.090164 0.495537 -1.592577
2008-07-18 08:18:22 51°14.897 2°54.674 21.4334 0.090164 0.495537 -1.592577
2008-07-18 08:18:27 51°14.914 2°54.668 21.4487 0.090164 0.495529 -1.627401
2008-07-18 08:18:32 51°14.93 2°54.664 21.4401 0.090164 0.49552 -1.592577
2008-07-18 08:18:37 51°14.946 2°54.658 21.4541 0.090164 0.49552 -1.592577
2008-07-18 08:18:42 51°14.962 2°54.654 21.4444 0.090164 0.49552 -1.592577
2008-07-18 08:18:47 51°14.977 2°54.648 21.45 0.090164 0.495511 -1.592577
2008-07-18 08:18:53 51°14.996 2°54.642 21.4597 0.090164 0.495511 -1.627401
2008-07-18 08:18:57 51°15.009 2°54.639 21.4492 0.090164 0.49552 -1.627401
2008-07-18 08:19:02 51°15.025 2°54.633 21.4492 0.090164 0.495511 -1.592577
2008-07-18 08:19:07 51°15.041 2°54.629 21.4545 0.090164 0.495511 -1.592577
2008-07-18 08:19:12 51°15.056 2°54.625 21.4471 0.090164 0.49552 -1.627401
2008-07-18 08:19:17 51°15.072 2°54.621 21.4684 0.090164 0.49552 -1.627401
2008-07-18 08:19:22 51°15.088 2°54.618 21.4559 0.090164 0.495537 -1.592577
2008-07-18 08:19:27 51°15.104 2°54.615 21.4506 0.090164 0.495546 -1.627401
2008-07-18 08:19:33 51°15.123 2°54.61 21.4675 0.090164 0.495555 -1.592577
2008-07-18 08:19:37 51°15.135 2°54.608 21.4555 0.090164 0.495555 -1.592577
2008-07-18 08:19:42 51°15.151 2°54.604 21.4614 0.090164 0.495555 -1.627401
2008-07-18 08:19:47 51°15.167 2°54.6 21.4607 0.090164 0.495555 -1.592577
2008-07-18 08:19:52 51°15.183 2°54.597 21.4598 0.090164 0.495564 -1.592577
2008-07-18 08:19:57 51°15.199 2°54.593 21.4652 0.090164 0.495555 -1.627401
2008-07-18 08:20:02 51°15.215 2°54.59 21.4679 0.090164 0.495564 -1.627401
2008-07-18 08:20:07 51°15.231 2°54.586 21.4692 0.090164 0.495564 -1.627401
2008-07-18 08:20:12 51°15.247 2°54.583 21.4731 0.090164 0.495555 -1.627401
2008-07-18 08:20:17 51°15.263 2°54.579 21.4626 0.090164 0.495564 -1.627401
2008-07-18 08:20:22 51°15.279 2°54.575 21.467 0.090164 0.495573 -1.627401
2008-07-18 08:20:27 51°15.295 2°54.572 21.4759 0.090164 0.495573 -1.592577
2008-07-18 08:20:32 51°15.311 2°54.568 21.4666 0.090164 0.495573 -1.592577
2008-07-18 08:20:37 51°15.327 2°54.564 21.4662 0.090164 0.495573 -1.592577
2008-07-18 08:20:42 51°15.343 2°54.56 21.4706 0.090164 0.495581 -1.627401
2008-07-18 08:20:47 51°15.359 2°54.557 21.4472 0.090164 0.49559 -1.592577
2008-07-18 08:20:52 51°15.375 2°54.552 21.4623 0.090164 0.495599 -1.627401
2008-07-18 08:20:57 51°15.391 2°54.547 21.4582 0.090164 0.495599 -1.592577
2008-07-18 08:21:02 51°15.407 2°54.542 21.4383 0.090164 0.495599 -1.592577
2008-07-18 08:21:07 51°15.423 2°54.536 21.4673 0.090164 0.495599 -1.592577
2008-07-18 08:21:12 51°15.439 2°54.532 21.4692 0.090164 0.49559 -1.592577
2008-07-18 08:21:17 51°15.455 2°54.526 21.4723 0.090164 0.49559 -1.592577
2008-07-18 08:21:22 51°15.47 2°54.521 21.488 0.090164 0.49559 -1.592577
2008-07-18 08:21:27 51°15.486 2°54.515 21.4778 0.090164 0.49559 -1.592577
2008-07-18 08:21:33 51°15.505 2°54.509 21.4908 0.090164 0.49559 -1.592577
2008-07-18 08:21:37 51°15.518 2°54.505 21.4824 0.090164 0.49559 -1.592577
2008-07-18 08:21:42 51°15.534 2°54.499 21.4884 0.090164 0.495599 -1.592577
2008-07-18 08:21:47 51°15.549 2°54.494 21.4879 0.090164 0.495608 -1.592577
2008-07-18 08:21:52 51°15.565 2°54.489 21.4883 0.090164 0.495625 -1.592577
2008-07-18 08:21:57 51°15.581 2°54.484 21.4835 0.090164 0.495634 -1.592577
2008-07-18 08:22:02 51°15.597 2°54.479 21.484 0.090164 0.495643 -1.592577
2008-07-18 08:22:07 51°15.613 2°54.475 21.4789 0.090164 0.495643 -1.592577
2008-07-18 08:22:12 51°15.629 2°54.47 21.4706 0.090164 0.495643 -1.627401
2008-07-18 08:22:17 51°15.645 2°54.466 21.4766 0.090164 0.495696 -1.592577
2008-07-18 08:22:22 51°15.661 2°54.462 21.4926 0.090164 0.495766 -1.627401
2008-07-18 08:22:27 51°15.677 2°54.459 21.4769 0.090164 0.495828 -1.627401
2008-07-18 08:22:32 51°15.693 2°54.455 21.4883 0.090164 0.495801 -1.592577
2008-07-18 08:22:37 51°15.71 2°54.451 21.4863 0.090164 0.495801 -1.592577
2008-07-18 08:22:42 51°15.725 2°54.446 21.4843 0.090164 0.495775 -1.592577
2008-07-18 08:22:47 51°15.741 2°54.442 21.4867 0.090164 0.495757 -1.627401
2008-07-18 08:22:52 51°15.757 2°54.438 21.4959 0.090164 0.495757 -1.627401
2008-07-18 08:22:57 51°15.773 2°54.434 21.5029 0.090164 0.495757 -1.627401
2008-07-18 08:23:02 51°15.789 2°54.431 21.4972 0.090164 0.495775 -1.592577
2008-07-18 08:23:07 51°15.806 2°54.426 21.5148 0.090164 0.495775 -1.592577
2008-07-18 08:23:12 51°15.822 2°54.423 21.4992 0.090164 0.495784 -1.592577
2008-07-18 08:23:17 51°15.838 2°54.419 21.5095 0.090164 0.495792 -1.592577
2008-07-18 08:23:22 51°15.854 2°54.416 21.5038 0.090164 0.495801 -1.592577
2008-07-18 08:23:27 51°15.87 2°54.412 21.5011 0.090164 0.495784 -1.627401
2008-07-18 08:23:33 51°15.889 2°54.408 21.5055 0.090164 0.495784 -1.592577
2008-07-18 08:23:37 51°15.902 2°54.404 21.5018 0.090164 0.495784 -1.592577
2008-07-18 08:23:42 51°15.918 2°54.399 21.4723 0.090164 0.495792 -1.592577
2008-07-18 08:23:47 51°15.933 2°54.391 21.5078 0.090164 0.495775 -1.592577
2008-07-18 08:23:52 51°15.949 2°54.384 21.5031 0.090164 0.495792 -1.592577
2008-07-18 08:23:57 51°15.964 2°54.374 21.5036 0.090164 0.49581 -1.592577
2008-07-18 08:24:02 51°15.979 2°54.364 21.2045 0.090164 0.495863 -1.592577
2008-07-18 08:24:07 51°15.994 2°54.353 20.2446 0.090164 0.495863 -1.592577
2008-07-18 08:24:12 51°16.008 2°54.341 19.0753 0.092531 0.510595 -1.070216
2008-07-18 08:24:17 51°16.023 2°54.328 18.949 0.164678 0.932987 -1.209513
2008-07-18 08:24:22 51°16.037 2°54.314 18.6691 0.340911 2.003853 -0.060319
2008-07-18 08:24:27 51°16.051 2°54.301 18.495 1.383765 8.892315 0.044153
2008-07-18 08:24:32 51°16.065 2°54.286 18.3605 2.728376 18.506343 2.586309
2008-07-18 08:24:37 51°16.079 2°54.272 18.3311 2.728376 18.506343 2.586309
2008-07-18 08:24:42 51°16.092 2°54.256 18.2896 3.831823 27.150944 5.51153
2008-07-18 08:24:47 51°16.106 2°54.24 18.2417 4.06795 29.213989 5.650826
2008-07-18 08:24:52 51°16.119 2°54.225 18.1923 4.056856 29.367227 5.302586
2008-07-18 08:24:57 51°16.132 2°54.21 18.1869 4.443182 32.763921 5.372234
2008-07-18 08:25:02 51°16.145 2°54.195 18.1557 4.532367 33.721721 5.33741
2008-07-18 08:25:07 51°16.157 2°54.179 18.1647 4.532367 33.721721 5.33741
2008-07-18 08:25:12 51°16.169 2°54.164 18.1418 4.550748 34.032579 5.302586
2008-07-18 08:25:17 51°16.181 2°54.149 18.1374 4.557291 34.177443 5.163289
2008-07-18 08:25:22 51°16.193 2°54.134 18.1277 4.560927 34.282844 5.023993
2008-07-18 08:25:27 51°16.205 2°54.119 18.1252 4.563939 34.369595 4.849873
2008-07-18 08:25:33 51°16.22 2°54.102 18.1198 4.564874 34.41789 4.815049
2008-07-18 08:25:37 51°16.229 2°54.091 18.0959 4.564874 34.41789 4.815049
2008-07-18 08:25:42 51°16.242 2°54.077 18.0973 4.563836 34.436332 4.745401
2008-07-18 08:25:47 51°16.254 2°54.063 18.1032 4.564045 34.460026 4.710577
2008-07-18 08:25:52 51°16.266 2°54.049 18.0878 4.562695 34.468572 4.675753
2008-07-18 08:25:57 51°16.278 2°54.035 18.108 4.563214 34.486958 4.675753
2008-07-18 08:26:02 51°16.29 2°54.021 18.1166 4.561346 34.481797 4.710577
2008-07-18 08:26:07 51°16.302 2°54.007 18.0789 4.561346 34.481797 4.710577
2008-07-18 08:26:12 51°16.314 2°53.993 18.0733 4.563215 34.510307 4.745401
2008-07-18 08:26:17 51°16.326 2°53.979 18.0706 4.562592 34.515711 4.780225
2008-07-18 08:26:22 51°16.338 2°53.966 18.061 4.560723 34.503876 4.849873
2008-07-18 08:26:27 51°16.35 2°53.952 18.0526 4.559789 34.499961 4.884697
2008-07-18 08:26:32 51°16.362 2°53.939 18.0401 4.558231 34.486758 4.884697
2008-07-18 08:26:37 51°16.374 2°53.925 18.0361 4.558231 34.486758 4.884697
2008-07-18 08:26:42 51°16.386 2°53.911 18.0419 4.5601 34.510618 4.919521
2008-07-18 08:26:47 51°16.398 2°53.897 18.03 4.56145 34.532094 4.989169
2008-07-18 08:26:52 51°16.41 2°53.883 18.0245 4.561866 34.542977 5.058817
2008-07-18 08:26:57 51°16.423 2°53.87 18.0224 4.560828 34.542199 5.093641
2008-07-18 08:27:02 51°16.435 2°53.856 18.0179 4.563424 34.57562 5.128465
2008-07-18 08:27:07 51°16.447 2°53.842 18.0119 4.563424 34.57562 5.128465
2008-07-18 08:27:12 51°16.459 2°53.829 18.0098 4.564047 34.589627 5.198113
2008-07-18 08:27:17 51°16.472 2°53.816 18.0115 4.561243 34.572526 5.198113
2008-07-18 08:27:22 51°16.484 2°53.803 18.0153 4.559894 34.567097 5.198113
2008-07-18 08:27:27 51°16.497 2°53.789 18.01 4.560828 34.581744 5.163289
2008-07-18 08:27:32 51°16.51 2°53.776 18.0136 4.561451 34.591065 5.163289
2008-07-18 08:27:37 51°16.522 2°53.763 18.007 4.561451 34.591065 5.163289
2008-07-18 08:27:42 51°16.534 2°53.75 18.0092 4.560725 34.590932 5.128465
2008-07-18 08:27:47 51°16.546 2°53.737 18.0058 4.553768 34.535841 5.058817
2008-07-18 08:27:52 51°16.558 2°53.723 18.0046 4.553248 34.532771 5.023993
2008-07-18 08:27:57 51°16.57 2°53.71 18.0094 4.559063 34.582856 5.023993
2008-07-18 08:28:02 51°16.582 2°53.697 18.0078 4.559375 34.587518 4.954345
2008-07-18 08:28:07 51°16.593 2°53.683 18.0172 4.559375 34.587518 4.954345
2008-07-18 08:28:12 51°16.605 2°53.669 18.0117 4.559271 34.589994 4.884697
2008-07-18 08:28:17 51°16.617 2°53.656 18.0118 4.559167 34.590455 4.815049
2008-07-18 08:28:22 51°16.629 2°53.642 18.0144 4.556571 34.569732 4.815049
2008-07-18 08:28:27 51°16.641 2°53.629 18.0194 4.557921 34.581878 4.745401
2008-07-18 08:28:33 51°16.655 2°53.613 18.0113 4.559375 34.593564 4.675753
2008-07-18 08:28:37 51°16.665 2°53.602 18.0171 4.559375 34.593564 4.675753
2008-07-18 08:28:42 51°16.677 2°53.589 18.0119 4.558233 34.583854 4.675753
2008-07-18 08:28:47 51°16.689 2°53.576 18.0166 4.541308 34.439356 4.57128
2008-07-18 08:28:52 51°16.701 2°53.563 18.0197 4.558544 34.585159 4.606104
2008-07-18 08:28:57 51°16.713 2°53.55 18.014 4.556364 34.566624 4.606104
2008-07-18 08:29:02 51°16.726 2°53.537 18.0182 4.55844 34.584276 4.606104
2008-07-18 08:29:07 51°16.738 2°53.524 18.0175 4.55844 34.584276 4.606104
2008-07-18 08:29:12 51°16.75 2°53.511 18.0168 4.559686 34.594869 4.606104
2008-07-18 08:29:17 51°16.763 2°53.499 18.0239 4.560206 34.599282 4.57128
2008-07-18 08:29:22 51°16.775 2°53.486 18.0231 4.559686 34.594197 4.606104
2008-07-18 08:29:27 51°16.787 2°53.474 18.0228 4.560309 34.598821 4.675753
2008-07-18 08:29:32 51°16.8 2°53.461 18.0212 4.560413 34.599704 4.675753
2008-07-18 08:29:37 51°16.812 2°53.448 18.0234 4.560413 34.599704 4.675753
2008-07-18 08:29:42 51°16.824 2°53.436 18.0251 4.560517 34.600586 4.675753
2008-07-18 08:29:47 51°16.837 2°53.423 18.0281 4.560932 34.603445 4.675753
2008-07-18 08:29:52 51°16.849 2°53.411 18.0255 4.560725 34.601008 4.675753
2008-07-18 08:29:57 51°16.861 2°53.398 18.0276 4.560621 34.599453 4.710577
2008-07-18 08:30:02 51°16.874 2°53.386 18.0273 4.560725 34.599664 4.745401
2008-07-18 08:30:07 51°16.886 2°53.374 18.0345 4.560725 34.599664 4.745401
2008-07-18 08:30:12 51°16.899 2°53.363 18.0358 4.560517 34.597227 4.745401
2008-07-18 08:30:17 51°16.912 2°53.352 18.0356 4.560621 34.597438 4.710577
2008-07-18 08:30:22 51°16.924 2°53.342 18.0352 4.560828 34.598531 4.745401
2008-07-18 08:30:27 51°16.937 2°53.333 18.0255 4.560828 34.597859 4.675753
2008-07-18 08:30:33 51°16.953 2°53.322 18.0241 4.560413 34.593657 4.675753
2008-07-18 08:30:37 51°16.963 2°53.315 18.0211 4.560413 34.593657 4.675753
2008-07-18 08:30:42 51°16.975 2°53.306 18.0152 4.560621 34.593407 4.675753
2008-07-18 08:30:47 51°16.988 2°53.297 18.0156 4.559894 34.585215 4.640929
2008-07-18 08:30:52 51°17.001 2°53.289 18.0147 4.558752 34.574838 4.606104
2008-07-18 08:30:57 51°17.014 2°53.28 18.0049 4.560102 34.587652 4.536456
2008-07-18 08:31:02 51°17.028 2°53.272 18.0058 4.559998 34.588784 4.501632
2008-07-18 08:31:07 51°17.041 2°53.264 18.0019 4.559998 34.588784 4.501632
2008-07-18 08:31:12 51°17.054 2°53.255 17.9984 4.55979 34.589034 4.466808
2008-07-18 08:31:17 51°17.067 2°53.246 17.9974 4.560206 34.596595 4.466808
2008-07-18 08:31:22 51°17.08 2°53.238 18.0018 4.560206 34.599282 4.362336
2008-07-18 08:31:27 51°17.093 2°53.229 17.9901 4.560206 34.60197 4.327512
2008-07-18 08:31:32 51°17.106 2°53.221 17.9949 4.556987 34.578635 4.257864
2008-07-18 08:31:37 51°17.119 2°53.216 17.9941 4.556987 34.578635 4.257864
2008-07-18 08:31:42 51°17.133 2°53.211 17.9771 4.559687 34.60495 4.22304
2008-07-18 08:31:47 51°17.147 2°53.208 17.9726 4.560206 34.612055 4.153392
2008-07-18 08:31:52 51°17.16 2°53.206 17.9719 4.559687 34.609657 4.04892
2008-07-18 08:31:57 51°17.174 2°53.205 17.9694 4.559271 34.60747 4.014096
2008-07-18 08:32:02 51°17.188 2°53.205 17.971 4.559894 34.614787 3.979271
2008-07-18 08:32:07 51°17.201 2°53.206 17.9624 4.559894 34.614787 3.979271
2008-07-18 08:32:12 51°17.215 2°53.209 17.9577 4.559791 34.616595 3.874799
2008-07-18 08:32:17 51°17.228 2°53.212 17.9516 4.560206 34.625512 3.839975
2008-07-18 08:32:22 51°17.241 2°53.217 17.9413 4.56031 34.632454 3.770327
2008-07-18 08:32:27 51°17.254 2°53.223 17.9326 4.560102 34.634054 3.700679
2008-07-18 08:32:33 51°17.27 2°53.23 17.934 4.559687 34.63254 3.665855
2008-07-18 08:32:37 51°17.28 2°53.236 17.9359 4.559687 34.63254 3.665855
2008-07-18 08:32:42 51°17.292 2°53.246 17.9342 4.559376 34.634604 3.596207
2008-07-18 08:32:47 51°17.304 2°53.255 17.9194 4.559064 34.635321 3.561383
2008-07-18 08:32:52 51°17.315 2°53.267 17.9145 4.559272 34.643154 3.526559
2008-07-18 08:32:57 51°17.327 2°53.278 17.9236 4.559272 34.649896 3.456911
2008-07-18 08:33:02 51°17.338 2°53.291 17.9066 4.558649 34.649985 3.422087
2008-07-18 08:33:07 51°17.349 2°53.304 17.9024 4.558649 34.649985 3.422087
2008-07-18 08:33:13 51°17.362 2°53.319 17.9029 4.557922 34.645144 3.422087
2008-07-18 08:33:17 51°17.37 2°53.33 17.8945 4.466037 33.865916 3.352439
2008-07-18 08:33:22 51°17.381 2°53.342 17.8928 4.402818 33.336475 3.352439
2008-07-18 08:33:27 51°17.392 2°53.355 17.8909 4.557507 34.655774 3.317614
2008-07-18 08:33:32 51°17.403 2°53.368 17.8844 4.557507 34.659824 3.28279
2008-07-18 08:33:37 51°17.414 2°53.381 17.8779 4.557507 34.659824 3.28279
2008-07-18 08:33:42 51°17.425 2°53.395 17.8752 4.5573 34.662781 3.28279
2008-07-18 08:33:47 51°17.436 2°53.408 17.8777 4.557196 34.667299 3.247966
2008-07-18 08:33:52 51°17.446 2°53.421 17.8708 4.556988 34.670258 3.247966
2008-07-18 08:33:57 51°17.457 2°53.434 17.8711 4.556781 34.672541 3.247966
2008-07-18 08:34:02 51°17.468 2°53.447 17.8659 4.556366 34.673055 3.213142
2008-07-18 08:34:07 51°17.478 2°53.46 17.8618 4.556366 34.673055 3.213142
2008-07-18 08:34:12 51°17.489 2°53.473 17.8614 4.556262 34.676226 3.213142
2008-07-18 08:34:17 51°17.5 2°53.486 17.8597 4.55595 34.67695 3.213142
2008-07-18 08:34:22 51°17.511 2°53.499 17.856 4.555535 34.677465 3.143494
2008-07-18 08:34:27 51°17.522 2°53.512 17.8578 4.555224 34.677513 3.178318
2008-07-18 08:34:33 51°17.535 2°53.527 17.8554 4.554912 34.678237 3.178318
2008-07-18 08:34:37 51°17.544 2°53.537 17.8528 4.554912 34.678237 3.178318
2008-07-18 08:34:42 51°17.555 2°53.55 17.853 4.554705 34.678495 3.143494
2008-07-18 08:34:47 51°17.567 2°53.562 17.8503 4.554497 34.679429 3.10867
2008-07-18 08:34:52 51°17.578 2°53.574 17.8445 4.554289 34.680364 3.10867
2008-07-18 08:34:57 51°17.589 2°53.587 17.8443 4.553978 34.679736 3.10867
2008-07-18 08:35:02 51°17.6 2°53.599 17.8495 4.55377 34.679317 3.10867
2008-07-18 08:35:07 51°17.612 2°53.611 17.8482 4.55377 34.679317 3.10867
2008-07-18 08:35:13 51°17.625 2°53.625 17.8423 4.553666 34.680461 3.10867
2008-07-18 08:35:17 51°17.634 2°53.636 17.8438 4.553459 34.680043 3.10867
2008-07-18 08:35:22 51°17.646 2°53.647 17.839 4.553251 34.680978 3.10867
2008-07-18 08:35:27 51°17.657 2°53.659 17.837 4.55294 34.681027 3.073846
2008-07-18 08:35:32 51°17.668 2°53.671 17.8404 4.552732 34.680608 3.073846
2008-07-18 08:35:37 51°17.68 2°53.683 17.838 4.552732 34.680608 3.073846
2008-07-18 08:35:42 51°17.691 2°53.695 17.8361 4.550136 34.658453 3.073846
2008-07-18 08:35:47 51°17.703 2°53.707 17.8359 4.550344 34.661579 3.10867
2008-07-18 08:35:52 51°17.714 2°53.719 17.8361 4.549929 34.660063 3.039022
2008-07-18 08:35:57 51°17.725 2°53.731 17.8339 4.550032 34.662303 3.039022
2008-07-18 08:36:02 51°17.736 2°53.744 17.8306 4.549825 34.661884 3.073846
2008-07-18 08:36:07 51°17.748 2°53.757 17.8319 4.549825 34.661884 3.073846
2008-07-18 08:36:12 51°17.759 2°53.768 17.8315 4.550032 34.66501 3.10867
2008-07-18 08:36:17 51°17.77 2°53.781 17.8278 4.549825 34.663914 3.10867
2008-07-18 08:36:22 51°17.782 2°53.792 17.8269 4.549202 34.659949 3.10867
2008-07-18 08:36:27 51°17.793 2°53.804 17.8292 4.549098 34.659063 3.10867
2008-07-18 08:36:33 51°17.807 2°53.818 17.8304 4.54889 34.658644 3.10867
2008-07-18 08:36:37 51°17.817 2°53.827 17.8272 4.54889 34.658644 3.10867
2008-07-18 08:36:42 51°17.828 2°53.838 17.8278 4.548994 34.661561 3.143494
2008-07-18 08:36:47 51°17.84 2°53.85 17.827 4.548787 34.661141 3.143494
2008-07-18 08:36:52 51°17.851 2°53.862 17.8239 4.550344 34.675116 3.10867
2008-07-18 08:36:57 51°17.862 2°53.874 17.8247 4.551071 34.682 3.143494
2008-07-18 08:37:02 51°17.874 2°53.886 17.823 4.550967 34.68179 3.143494
2008-07-18 08:37:07 51°17.885 2°53.898 17.8236 4.550967 34.68179 3.143494
2008-07-18 08:37:13 51°17.899 2°53.912 17.8247 4.550863 34.681581 3.178318
2008-07-18 08:37:17 51°17.908 2°53.921 17.8241 4.550863 34.681581 3.178318
2008-07-18 08:37:22 51°17.92 2°53.933 17.8237 4.550759 34.682049 3.178318
2008-07-18 08:37:27 51°17.931 2°53.945 17.8225 4.549306 34.670313 3.178318
2008-07-18 08:37:33 51°17.945 2°53.96 17.8232 4.550552 34.682308 3.178318
2008-07-18 08:37:37 51°17.954 2°53.969 17.82 4.550552 34.682308 3.178318
2008-07-18 08:37:42 51°17.966 2°53.981 17.8246 4.550448 34.681421 3.178318
2008-07-18 08:37:47 51°17.977 2°53.993 17.8227 4.55024 34.680325 3.178318
2008-07-18 08:37:52 51°17.989 2°54.004 17.8207 4.550033 34.678552 3.178318
2008-07-18 08:37:57 51°18 2°54.015 17.8222 4.549825 34.676779 3.178318
2008-07-18 08:38:02 51°18.012 2°54.027 17.8263 4.549825 34.677456 3.213142
2008-07-18 08:38:07 51°18.024 2°54.038 17.8233 4.549825 34.677456 3.213142
2008-07-18 08:38:12 51°18.035 2°54.049 17.8223 4.548371 34.665042 3.213142
2008-07-18 08:38:17 51°18.047 2°54.06 17.8211 4.55024 34.68168 3.213142
2008-07-18 08:38:22 51°18.059 2°54.071 17.8209 4.550137 34.680794 3.213142
2008-07-18 08:38:27 51°18.071 2°54.083 17.8224 4.550137 34.680794 3.247966
2008-07-18 08:38:32 51°18.083 2°54.094 17.8208 4.550033 34.679907 3.213142
2008-07-18 08:38:37 51°18.094 2°54.104 17.8226 4.550033 34.679907 3.213142
2008-07-18 08:38:42 51°18.104 2°54.114 17.821 4.550137 34.680794 3.247966
2008-07-18 08:38:47 51°18.113 2°54.124 17.8219 4.550137 34.680794 3.247966
2008-07-18 08:38:52 51°18.121 2°54.132 17.8208 4.550137 34.681471 3.247966
2008-07-18 08:38:57 51°18.128 2°54.141 17.8214 4.550137 34.682149 3.247966
2008-07-18 08:39:02 51°18.136 2°54.149 17.8191 4.550033 34.681262 3.213142
2008-07-18 08:39:07 51°18.141 2°54.158 17.8186 4.550033 34.681262 3.213142
2008-07-18 08:39:13 51°18.148 2°54.166 17.8207 4.550137 34.681471 3.247966
2008-07-18 08:39:17 51°18.152 2°54.172 17.8181 4.550033 34.681262 3.247966
2008-07-18 08:39:22 51°18.157 2°54.179 17.8203 4.549929 34.680375 3.28279
2008-07-18 08:39:27 51°18.161 2°54.186 17.8194 4.549929 34.680375 3.28279
2008-07-18 08:39:33 51°18.165 2°54.194 17.8183 4.549825 34.680166 3.28279
2008-07-18 08:39:37 51°18.168 2°54.199 17.8194 4.549825 34.680166 3.28279
2008-07-18 08:39:42 51°18.172 2°54.205 17.8192 4.549825 34.680166 3.317614
2008-07-18 08:39:47 51°18.175 2°54.211 17.8192 4.549825 34.680843 3.317614
2008-07-18 08:39:53 51°18.178 2°54.218 17.8214 4.549721 34.680634 3.317614
2008-07-18 08:39:57 51°18.18 2°54.222 17.8199 4.549721 34.680634 3.317614
2008-07-18 08:40:02 51°18.183 2°54.227 17.8184 4.549721 34.680634 3.28279
2008-07-18 08:40:07 51°18.185 2°54.232 17.8178 4.549721 34.680634 3.28279
2008-07-18 08:40:12 51°18.187 2°54.237 17.818 4.549617 34.680425 3.317614
2008-07-18 08:40:17 51°18.189 2°54.242 17.8173 4.549617 34.680425 3.317614
2008-07-18 08:40:22 51°18.191 2°54.246 17.8177 4.549617 34.679747 3.28279
2008-07-18 08:40:27 51°18.192 2°54.25 17.8205 4.549617 34.679747 3.28279
2008-07-18 08:40:32 51°18.194 2°54.255 17.8203 4.549514 34.679538 3.28279
2008-07-18 08:40:37 51°18.195 2°54.259 17.8183 4.549514 34.679538 3.28279
2008-07-18 08:40:42 51°18.195 2°54.262 17.8183 4.54048 34.602398 3.28279
2008-07-18 08:40:47 51°18.196 2°54.266 17.8178 4.549514 34.679538 3.317614
2008-07-18 08:40:52 51°18.197 2°54.269 17.8201 4.549514 34.680215 3.28279
2008-07-18 08:40:57 51°18.197 2°54.273 17.819 4.54941 34.679329 3.28279
2008-07-18 08:41:02 51°18.197 2°54.275 17.8224 4.54941 34.679329 3.28279
2008-07-18 08:41:07 51°18.198 2°54.278 17.8197 4.54941 34.679329 3.28279
2008-07-18 08:41:13 51°18.198 2°54.28 17.8236 4.54941 34.679329 3.28279
2008-07-18 08:41:17 51°18.198 2°54.282 17.8202 4.54941 34.679329 3.28279
2008-07-18 08:41:22 51°18.198 2°54.283 17.8211 4.54941 34.679329 3.247966
2008-07-18 08:41:27 51°18.198 2°54.285 17.8205 4.549306 34.677764 3.247966
2008-07-18 08:41:32 51°18.198 2°54.286 17.8214 4.549202 34.676877 3.247966
2008-07-18 08:41:37 51°18.198 2°54.287 17.8224 4.549202 34.676877 3.247966
2008-07-18 08:41:42 51°18.198 2°54.288 17.8228 4.549202 34.6762 3.247966
2008-07-18 08:41:47 51°18.198 2°54.289 17.8208 4.549202 34.6762 3.247966
2008-07-18 08:41:53 51°18.198 2°54.289 17.8221 4.549202 34.6762 3.247966
2008-07-18 08:41:57 51°18.198 2°54.29 17.8231 4.549306 34.677087 3.213142
2008-07-18 08:42:02 51°18.197 2°54.29 17.823 4.54941 34.677973 3.247966
2008-07-18 08:42:07 51°18.197 2°54.29 17.8237 4.54941 34.677973 3.247966
2008-07-18 08:42:13 51°18.196 2°54.291 17.8236 4.549514 34.67886 3.213142
2008-07-18 08:42:17 51°18.196 2°54.291 17.825 4.549514 34.678183 3.213142
2008-07-18 08:42:22 51°18.196 2°54.291 17.8276 4.549514 34.678183 3.213142
2008-07-18 08:42:27 51°18.195 2°54.291 17.8248 4.549202 34.675522 3.247966
2008-07-18 08:42:32 51°18.195 2°54.291 17.8227 4.54941 34.676619 3.213142
2008-07-18 08:42:37 51°18.195 2°54.291 17.8232 4.54941 34.676619 3.213142
2008-07-18 08:42:42 51°18.195 2°54.292 17.8246 4.549617 34.678392 3.213142
2008-07-18 08:42:47 51°18.195 2°54.292 17.8253 4.549617 34.677715 3.178318
2008-07-18 08:42:52 51°18.194 2°54.292 17.8242 4.549617 34.677037 3.213142
2008-07-18 08:42:57 51°18.194 2°54.293 17.8251 4.549721 34.677247 3.213142
2008-07-18 08:43:02 51°18.194 2°54.293 17.8233 4.547022 34.65487 3.178318
2008-07-18 08:43:07 51°18.194 2°54.293 17.8256 4.547022 34.65487 3.178318
2008-07-18 08:43:12 51°18.194 2°54.293 17.8262 4.549721 34.678601 3.213142
2008-07-18 08:43:17 51°18.194 2°54.293 17.8247 4.549721 34.678601 3.213142
2008-07-18 08:43:22 51°18.194 2°54.293 17.8248 4.549721 34.677924 3.178318
2008-07-18 08:43:27 51°18.194 2°54.293 17.8261 4.549617 34.677715 3.178318
2008-07-18 08:43:32 51°18.194 2°54.293 17.8268 4.549721 34.677924 3.213142
2008-07-18 08:43:37 51°18.194 2°54.293 17.8271 4.549721 34.677924 3.213142
2008-07-18 08:43:42 51°18.194 2°54.293 17.8262 4.549721 34.677924 3.247966
2008-07-18 08:43:47 51°18.194 2°54.293 17.8251 4.547748 34.661077 3.213142
2008-07-18 08:43:52 51°18.194 2°54.293 17.8276 4.548683 34.669057 3.213142
2008-07-18 08:43:57 51°18.194 2°54.293 17.8267 4.548475 34.666606 3.213142
2008-07-18 08:44:02 51°18.194 2°54.293 17.8261 4.546502 34.649083 3.178318
2008-07-18 08:44:07 51°18.194 2°54.293 17.8274 4.546502 34.649083 3.178318
2008-07-18 08:44:13 51°18.194 2°54.293 17.8271 4.547021 34.653516 3.178318
2008-07-18 08:44:17 51°18.195 2°54.293 17.8274 4.54671 34.650856 3.178318
2008-07-18 08:44:22 51°18.195 2°54.293 17.827 4.546606 34.64997 3.213142
2008-07-18 08:44:27 51°18.195 2°54.293 17.8274 4.546814 34.651743 3.213142
2008-07-18 08:44:32 51°18.195 2°54.293 17.8284 4.54671 34.650856 3.178318
2008-07-18 08:44:37 51°18.195 2°54.292 17.828 4.54671 34.650856 3.178318
2008-07-18 08:44:42 51°18.196 2°54.292 17.8268 4.54671 34.650856 3.213142
2008-07-18 08:44:47 51°18.196 2°54.292 17.8273 4.549825 34.677456 3.213142
2008-07-18 08:44:52 51°18.196 2°54.291 17.8274 4.549825 34.676779 3.213142
2008-07-18 08:44:57 51°18.197 2°54.291 17.8282 4.549825 34.676779 3.213142
2008-07-18 08:45:02 51°18.197 2°54.291 17.8269 4.549825 34.676779 3.213142
2008-07-18 08:45:07 51°18.197 2°54.29 17.8296 4.549825 34.676779 3.213142
2008-07-18 08:45:12 51°18.198 2°54.289 17.8297 4.549929 34.677665 3.213142
2008-07-18 08:45:17 51°18.198 2°54.289 17.8287 4.549929 34.676988 3.213142
2008-07-18 08:45:22 51°18.199 2°54.288 17.8271 4.549929 34.677665 3.213142
2008-07-18 08:45:27 51°18.199 2°54.287 17.8302 4.549929 34.677665 3.213142
2008-07-18 08:45:32 51°18.2 2°54.286 17.8302 4.549929 34.677665 3.247966
2008-07-18 08:45:37 51°18.201 2°54.285 17.831 4.549929 34.677665 3.247966
2008-07-18 08:45:42 51°18.201 2°54.285 17.8304 4.549929 34.676988 3.247966
2008-07-18 08:45:47 51°18.202 2°54.284 17.8297 4.549929 34.676988 3.247966
2008-07-18 08:45:52 51°18.202 2°54.282 17.8293 4.549929 34.676988 3.247966
2008-07-18 08:45:57 51°18.203 2°54.282 17.8306 4.549929 34.676988 3.247966
2008-07-18 08:46:02 51°18.204 2°54.28 17.8291 4.549929 34.676311 3.28279
2008-07-18 08:46:07 51°18.204 2°54.279 17.8293 4.549929 34.676311 3.28279
2008-07-18 08:46:13 51°18.205 2°54.277 17.8304 4.550033 34.67652 3.247966
2008-07-18 08:46:17 51°18.206 2°54.276 17.8312 4.550033 34.67652 3.247966
2008-07-18 08:46:22 51°18.206 2°54.274 17.83 4.550136 34.677407 3.247966
2008-07-18 08:46:27 51°18.207 2°54.273 17.8301 4.550033 34.67652 3.28279
2008-07-18 08:46:32 51°18.208 2°54.271 17.8298 4.550033 34.677197 3.28279
2008-07-18 08:46:37 51°18.208 2°54.27 17.8315 4.550033 34.677197 3.28279
2008-07-18 08:46:42 51°18.209 2°54.268 17.8314 4.550033 34.677197 3.317614
2008-07-18 08:46:47 51°18.21 2°54.266 17.8316 4.550033 34.677197 3.28279
2008-07-18 08:46:53 51°18.21 2°54.264 17.8336 4.550033 34.67652 3.28279
2008-07-18 08:46:57 51°18.211 2°54.263 17.8335 4.550033 34.67652 3.28279
2008-07-18 08:47:02 51°18.212 2°54.261 17.8313 4.550033 34.67652 3.28279
2008-07-18 08:47:07 51°18.213 2°54.259 17.8324 4.550033 34.67652 3.28279
2008-07-18 08:47:12 51°18.213 2°54.257 17.8319 4.550033 34.67652 3.28279
2008-07-18 08:47:17 51°18.214 2°54.255 17.8323 4.550033 34.675843 3.28279
2008-07-18 08:47:22 51°18.215 2°54.254 17.8329 4.550136 34.676052 3.28279
2008-07-18 08:47:27 51°18.216 2°54.252 17.8343 4.54183 34.605134 3.28279
2008-07-18 08:47:32 51°18.216 2°54.25 17.8325 4.55024 34.676939 3.317614
2008-07-18 08:47:37 51°18.217 2°54.248 17.8325 4.55024 34.676939 3.317614
2008-07-18 08:47:42 51°18.218 2°54.246 17.833 4.550136 34.676052 3.317614
2008-07-18 08:47:47 51°18.219 2°54.243 17.8332 4.550136 34.676052 3.317614
2008-07-18 08:47:52 51°18.219 2°54.241 17.8337 4.55024 34.676939 3.28279
2008-07-18 08:47:57 51°18.22 2°54.239 17.8341 4.55024 34.676939 3.317614
2008-07-18 08:48:02 51°18.221 2°54.237 17.8341 4.55024 34.676261 3.317614
2008-07-18 08:48:07 51°18.222 2°54.235 17.8336 4.55024 34.676261 3.317614
2008-07-18 08:48:13 51°18.223 2°54.232 17.8331 4.55024 34.676261 3.317614
2008-07-18 08:48:17 51°18.223 2°54.23 17.8321 4.550136 34.675375 3.317614
2008-07-18 08:48:22 51°18.224 2°54.228 17.8337 4.550136 34.675375 3.352439
2008-07-18 08:48:27 51°18.225 2°54.225 17.8365 4.55024 34.676261 3.317614
2008-07-18 08:48:32 51°18.226 2°54.223 17.8322 4.55024 34.676261 3.317614
2008-07-18 08:48:37 51°18.227 2°54.22 17.8349 4.55024 34.676261 3.317614
2008-07-18 08:48:42 51°18.227 2°54.218 17.8341 4.55024 34.676261 3.317614
2008-07-18 08:48:47 51°18.228 2°54.216 17.8342 4.55024 34.676261 3.352439
2008-07-18 08:48:53 51°18.229 2°54.213 17.8326 4.55024 34.676261 3.352439
2008-07-18 08:48:57 51°18.23 2°54.21 17.8327 4.55024 34.675584 3.352439
2008-07-18 08:49:02 51°18.231 2°54.208 17.8332 4.55024 34.675584 3.352439
2008-07-18 08:49:07 51°18.231 2°54.206 17.8333 4.55024 34.675584 3.352439
2008-07-18 08:49:12 51°18.232 2°54.203 17.8319 4.55024 34.675584 3.387263
2008-07-18 08:49:17 51°18.233 2°54.2 17.8319 4.55024 34.675584 3.387263
2008-07-18 08:49:22 51°18.234 2°54.198 17.8347 4.55024 34.675584 3.387263
2008-07-18 08:49:27 51°18.235 2°54.195 17.8325 4.55024 34.675584 3.387263
2008-07-18 08:49:32 51°18.236 2°54.193 17.8325 4.55024 34.676261 3.387263
2008-07-18 08:49:37 51°18.236 2°54.19 17.8338 4.55024 34.676261 3.387263
2008-07-18 08:49:42 51°18.237 2°54.188 17.832 4.550136 34.675375 3.422087
2008-07-18 08:49:47 51°18.238 2°54.185 17.8309 4.550136 34.675375 3.387263
2008-07-18 08:49:52 51°18.239 2°54.183 17.8322 4.550136 34.676052 3.387263
2008-07-18 08:49:57 51°18.24 2°54.18 17.8321 4.550136 34.676052 3.387263
2008-07-18 08:50:02 51°18.241 2°54.178 17.832 4.550136 34.676052 3.387263
2008-07-18 08:50:07 51°18.242 2°54.175 17.8326 4.550136 34.676052 3.387263
2008-07-18 08:50:13 51°18.243 2°54.172 17.8331 4.550136 34.676052 3.352439
2008-07-18 08:50:17 51°18.243 2°54.17 17.8344 4.550136 34.676052 3.387263
2008-07-18 08:50:22 51°18.244 2°54.167 17.8325 4.550136 34.676052 3.387263
2008-07-18 08:50:27 51°18.245 2°54.165 17.8343 4.550136 34.676052 3.387263
2008-07-18 08:50:32 51°18.246 2°54.162 17.8319 4.550136 34.676729 3.422087
2008-07-18 08:50:37 51°18.247 2°54.159 17.8315 4.550136 34.676729 3.422087
2008-07-18 08:50:42 51°18.248 2°54.156 17.83 4.550136 34.676052 3.387263
2008-07-18 08:50:47 51°18.249 2°54.153 17.8302 4.550136 34.676052 3.387263
2008-07-18 08:50:53 51°18.25 2°54.15 17.8329 4.550136 34.675375 3.387263
2008-07-18 08:50:57 51°18.251 2°54.148 17.8306 4.550136 34.675375 3.387263
2008-07-18 08:51:02 51°18.252 2°54.145 17.8316 4.550136 34.676052 3.387263
2008-07-18 08:51:07 51°18.254 2°54.142 17.8334 4.550136 34.676052 3.387263
2008-07-18 08:51:13 51°18.255 2°54.139 17.8306 4.550136 34.676052 3.387263
2008-07-18 08:51:17 51°18.256 2°54.136 17.8311 4.550033 34.675843 3.387263
2008-07-18 08:51:22 51°18.258 2°54.133 17.8308 4.550033 34.67652 3.387263
2008-07-18 08:51:27 51°18.259 2°54.131 17.8292 4.550033 34.67652 3.387263
2008-07-18 08:51:32 51°18.261 2°54.128 17.8296 4.550033 34.67652 3.387263
2008-07-18 08:51:37 51°18.262 2°54.125 17.8284 4.550033 34.67652 3.387263
2008-07-18 08:51:42 51°18.264 2°54.122 17.8287 4.550033 34.675843 3.387263
2008-07-18 08:51:47 51°18.265 2°54.119 17.8273 4.550033 34.67652 3.387263
2008-07-18 08:51:52 51°18.267 2°54.116 17.8292 4.550033 34.67652 3.387263
2008-07-18 08:51:57 51°18.268 2°54.113 17.8278 4.550033 34.677197 3.422087
2008-07-18 08:52:02 51°18.27 2°54.11 17.8284 4.549929 34.676311 3.422087
2008-07-18 08:52:07 51°18.272 2°54.107 17.828 4.549929 34.676311 3.422087
2008-07-18 08:52:13 51°18.274 2°54.104 17.8276 4.549929 34.676988 3.422087
2008-07-18 08:52:17 51°18.275 2°54.101 17.8261 4.549825 34.676779 3.387263
2008-07-18 08:52:22 51°18.277 2°54.099 17.8264 4.549825 34.677456 3.422087
2008-07-18 08:52:27 51°18.279 2°54.096 17.8272 4.549825 34.676779 3.422087
2008-07-18 08:52:32 51°18.281 2°54.093 17.827 4.547437 34.657063 3.422087
2008-07-18 08:52:37 51°18.283 2°54.09 17.8263 4.547437 34.657063 3.422087
2008-07-18 08:52:42 51°18.284 2°54.087 17.8261 4.545672 34.64199 3.422087
2008-07-18 08:52:47 51°18.286 2°54.084 17.8274 4.549721 34.676569 3.422087
2008-07-18 08:52:52 51°18.288 2°54.081 17.8251 4.549721 34.677247 3.422087
2008-07-18 08:52:57 51°18.29 2°54.078 17.8245 4.549721 34.677247 3.422087
2008-07-18 08:53:02 51°18.292 2°54.075 17.8262 4.549617 34.67636 3.456911
2008-07-18 08:53:07 51°18.294 2°54.072 17.8268 4.549617 34.67636 3.456911
2008-07-18 08:53:13 51°18.296 2°54.069 17.8258 4.549617 34.677037 3.422087
2008-07-18 08:53:17 51°18.298 2°54.066 17.8243 4.549617 34.677037 3.456911
2008-07-18 08:53:22 51°18.3 2°54.064 17.8247 4.549617 34.677037 3.422087
2008-07-18 08:53:27 51°18.302 2°54.061 17.8248 4.549617 34.677715 3.422087
2008-07-18 08:53:32 51°18.304 2°54.058 17.8251 4.549514 34.676828 3.422087
2008-07-18 08:53:37 51°18.306 2°54.055 17.825 4.549514 34.676828 3.422087
2008-07-18 08:53:42 51°18.308 2°54.052 17.8256 4.549617 34.677715 3.422087
2008-07-18 08:53:47 51°18.31 2°54.049 17.8258 4.549617 34.677715 3.456911
2008-07-18 08:53:52 51°18.312 2°54.046 17.8243 4.549514 34.677505 3.456911
2008-07-18 08:53:57 51°18.314 2°54.043 17.8256 4.549514 34.677505 3.456911
2008-07-18 08:54:02 51°18.316 2°54.039 17.8249 4.549514 34.677505 3.456911
2008-07-18 08:54:07 51°18.318 2°54.036 17.8245 4.549514 34.677505 3.456911
2008-07-18 08:54:12 51°18.32 2°54.033 17.8221 4.549514 34.677505 3.456911
2008-07-18 08:54:17 51°18.322 2°54.03 17.8226 4.549514 34.677505 3.456911
2008-07-18 08:54:22 51°18.324 2°54.027 17.824 4.549514 34.677505 3.456911
2008-07-18 08:54:27 51°18.326 2°54.024 17.8226 4.549514 34.677505 3.456911
2008-07-18 08:54:32 51°18.328 2°54.021 17.8226 4.549514 34.677505 3.491735
2008-07-18 08:54:37 51°18.33 2°54.017 17.8209 4.549514 34.677505 3.491735
2008-07-18 08:54:42 51°18.332 2°54.013 17.8221 4.549514 34.677505 3.491735
2008-07-18 08:54:47 51°18.334 2°54.01 17.8209 4.549514 34.678183 3.526559
2008-07-18 08:54:52 51°18.336 2°54.006 17.8197 4.54941 34.677973 3.526559
2008-07-18 08:54:57 51°18.338 2°54.003 17.8203 4.54941 34.677973 3.526559
2008-07-18 08:55:02 51°18.34 2°53.999 17.8235 4.54941 34.678651 3.526559
2008-07-18 08:55:07 51°18.342 2°53.996 17.8204 4.54941 34.678651 3.526559
2008-07-18 08:55:13 51°18.344 2°53.992 17.8216 4.549306 34.677764 3.526559
2008-07-18 08:55:17 51°18.345 2°53.989 17.8212 4.549306 34.678442 3.561383
2008-07-18 08:55:22 51°18.348 2°53.986 17.8203 4.549306 34.678442 3.561383
2008-07-18 08:55:27 51°18.35 2°53.983 17.8204 4.549202 34.677555 3.526559
2008-07-18 08:55:32 51°18.352 2°53.98 17.8226 4.549202 34.678232 3.526559
2008-07-18 08:55:37 51°18.354 2°53.978 17.8203 4.549202 34.678232 3.526559
2008-07-18 08:55:42 51°18.356 2°53.975 17.8239 4.549306 34.679119 3.561383
2008-07-18 08:55:47 51°18.358 2°53.973 17.8206 4.549202 34.678232 3.596207
2008-07-18 08:55:53 51°18.361 2°53.969 17.8222 4.549202 34.678232 3.561383
2008-07-18 08:55:57 51°18.363 2°53.967 17.8208 4.549202 34.678232 3.561383
2008-07-18 08:56:02 51°18.365 2°53.965 17.8214 4.549202 34.678232 3.561383
2008-07-18 08:56:07 51°18.368 2°53.963 17.8209 4.549202 34.678232 3.561383
2008-07-18 08:56:12 51°18.37 2°53.96 17.8231 4.549202 34.677555 3.561383
2008-07-18 08:56:17 51°18.372 2°53.958 17.8205 4.549202 34.677555 3.561383
2008-07-18 08:56:22 51°18.374 2°53.955 17.8196 4.549202 34.677555 3.561383
2008-07-18 08:56:27 51°18.377 2°53.953 17.8213 4.549202 34.677555 3.526559
2008-07-18 08:56:32 51°18.379 2°53.951 17.8221 4.549202 34.678232 3.561383
2008-07-18 08:56:37 51°18.381 2°53.949 17.8203 4.549202 34.678232 3.561383
2008-07-18 08:56:42 51°18.384 2°53.947 17.8197 4.549202 34.678232 3.526559
2008-07-18 08:56:47 51°18.386 2°53.945 17.821 4.549306 34.678442 3.526559
2008-07-18 08:56:52 51°18.388 2°53.942 17.8187 4.549202 34.678232 3.526559
2008-07-18 08:56:57 51°18.391 2°53.94 17.8198 4.549202 34.678232 3.526559
2008-07-18 08:57:02 51°18.393 2°53.938 17.8191 4.549202 34.678232 3.561383
2008-07-18 08:57:07 51°18.396 2°53.936 17.8184 4.549202 34.678232 3.561383
2008-07-18 08:57:12 51°18.398 2°53.933 17.8182 4.549202 34.678232 3.561383
2008-07-18 08:57:17 51°18.4 2°53.931 17.8208 4.549202 34.67891 3.561383
2008-07-18 08:57:22 51°18.402 2°53.928 17.8184 4.549202 34.678232 3.561383
2008-07-18 08:57:27 51°18.405 2°53.926 17.8213 4.549202 34.67891 3.561383
2008-07-18 08:57:32 51°18.407 2°53.923 17.8199 4.549202 34.67891 3.561383
2008-07-18 08:57:37 51°18.409 2°53.921 17.8182 4.549202 34.67891 3.561383
2008-07-18 08:57:42 51°18.412 2°53.919 17.8163 4.549202 34.67891 3.561383
2008-07-18 08:57:47 51°18.414 2°53.916 17.8173 4.549098 34.678701 3.561383
2008-07-18 08:57:53 51°18.417 2°53.914 17.8185 4.549098 34.678701 3.596207
2008-07-18 08:57:57 51°18.419 2°53.912 17.8165 4.549098 34.678023 3.596207
2008-07-18 08:58:02 51°18.422 2°53.91 17.8187 4.549202 34.67891 3.596207
2008-07-18 08:58:07 51°18.424 2°53.907 17.8172 4.549202 34.67891 3.596207
2008-07-18 08:58:12 51°18.426 2°53.905 17.818 4.549202 34.679588 3.631031
2008-07-18 08:58:17 51°18.429 2°53.903 17.8178 4.549098 34.678701 3.631031
2008-07-18 08:58:22 51°18.431 2°53.9 17.8184 4.549098 34.679378 3.631031
2008-07-18 08:58:27 51°18.434 2°53.898 17.817 4.548787 34.676718 3.631031
2008-07-18 08:58:32 51°18.436 2°53.895 17.8172 4.548683 34.675831 3.596207
2008-07-18 08:58:37 51°18.439 2°53.893 17.8163 4.548683 34.675831 3.596207
2008-07-18 08:58:42 51°18.441 2°53.891 17.8172 4.547748 34.667849 3.596207
2008-07-18 08:58:47 51°18.444 2°53.888 17.8154 4.547852 34.668736 3.631031
2008-07-18 08:58:52 51°18.446 2°53.886 17.8163 4.547748 34.667849 3.631031
2008-07-18 08:58:57 51°18.449 2°53.884 17.8141 4.547748 34.668526 3.596207
2008-07-18 08:59:02 51°18.451 2°53.881 17.8147 4.54806 34.671187 3.631031
2008-07-18 08:59:07 51°18.454 2°53.879 17.814 4.54806 34.671187 3.631031
2008-07-18 08:59:12 51°18.456 2°53.877 17.8133 4.547437 34.666543 3.631031
2008-07-18 08:59:17 51°18.459 2°53.875 17.8139 4.547333 34.665656 3.596207
2008-07-18 08:59:22 51°18.461 2°53.872 17.8149 4.547229 34.664769 3.561383
2008-07-18 08:59:27 51°18.463 2°53.87 17.8147 4.547645 34.668994 3.631031
2008-07-18 08:59:32 51°18.466 2°53.867 17.8133 4.547852 34.670768 3.631031
2008-07-18 08:59:37 51°18.468 2°53.865 17.8128 4.547852 34.670768 3.631031
2008-07-18 08:59:42 51°18.47 2°53.862 17.812 4.547645 34.669672 3.631031
2008-07-18 08:59:47 51°18.472 2°53.86 17.8117 4.547437 34.667898 3.596207
2008-07-18 08:59:53 51°18.475 2°53.857 17.8103 4.547541 34.669462 3.596207
2008-07-18 08:59:57 51°18.477 2°53.855 17.8112 4.547956 34.67301 3.596207
2008-07-18 09:00:02 51°18.479 2°53.853 17.8107 4.547645 34.670349 3.561383
2008-07-18 09:00:07 51°18.481 2°53.852 17.8113 4.547645 34.670349 3.561383
2008-07-18 09:00:12 51°18.483 2°53.85 17.8119 4.547333 34.668366 3.561383
2008-07-18 09:00:17 51°18.486 2°53.847 17.8119 4.547956 34.674365 3.561383
2008-07-18 09:00:22 51°18.488 2°53.845 17.8117 4.547126 34.667947 3.596207
2008-07-18 09:00:27 51°18.491 2°53.843 17.8118 4.547333 34.669721 3.596207
2008-07-18 09:00:33 51°18.494 2°53.84 17.8108 4.548164 34.677495 3.561383
2008-07-18 09:00:37 51°18.496 2°53.838 17.8098 4.548164 34.677495 3.561383
2008-07-18 09:00:42 51°18.498 2°53.836 17.8139 4.546918 34.66685 3.561383
2008-07-18 09:00:47 51°18.501 2°53.833 17.8118 4.547645 34.673059 3.561383
2008-07-18 09:00:52 51°18.503 2°53.831 17.8101 4.547022 34.667737 3.526559
2008-07-18 09:00:57 51°18.505 2°53.828 17.8091 4.547645 34.672382 3.526559
2008-07-18 09:01:02 51°18.508 2°53.826 17.8094 4.547541 34.671495 3.596207
2008-07-18 09:01:07 51°18.51 2°53.823 17.8077 4.547541 34.671495 3.596207
2008-07-18 09:01:12 51°18.513 2°53.821 17.8099 4.547541 34.672172 3.561383
2008-07-18 09:01:17 51°18.515 2°53.819 17.8074 4.547437 34.671285 3.561383
2008-07-18 09:01:22 51°18.517 2°53.817 17.808 4.547541 34.672172 3.561383
2008-07-18 09:01:27 51°18.519 2°53.814 17.8093 4.547956 34.67572 3.526559
2008-07-18 09:01:32 51°18.522 2°53.812 17.8069 4.547333 34.671076 3.491735
2008-07-18 09:01:37 51°18.524 2°53.81 17.8059 4.547333 34.671076 3.491735
2008-07-18 09:01:42 51°18.527 2°53.808 17.8072 4.547749 34.675979 3.456911
2008-07-18 09:01:47 51°18.529 2°53.806 17.8076 4.547541 34.674205 3.491735
2008-07-18 09:01:53 51°18.532 2°53.803 17.8076 4.546918 34.668883 3.456911
2008-07-18 09:01:57 51°18.534 2°53.801 17.8075 4.547645 34.675092 3.456911
2008-07-18 09:02:02 51°18.537 2°53.799 17.8064 4.546918 34.669561 3.456911
2008-07-18 09:02:07 51°18.539 2°53.797 17.8053 4.546918 34.669561 3.456911
2008-07-18 09:02:12 51°18.542 2°53.795 17.8055 4.547749 34.676657 3.422087
2008-07-18 09:02:17 51°18.544 2°53.792 17.8059 4.546814 34.668674 3.422087
2008-07-18 09:02:22 51°18.547 2°53.79 17.8057 4.547437 34.674674 3.422087
2008-07-18 09:02:27 51°18.549 2°53.788 17.8058 4.547022 34.671125 3.352439
2008-07-18 09:02:32 51°18.552 2°53.786 17.8043 4.546918 34.669561 3.317614
2008-07-18 09:02:37 51°18.554 2°53.783 17.8073 4.546918 34.669561 3.317614
2008-07-18 09:02:42 51°18.557 2°53.781 17.8058 4.547333 34.674464 3.317614
2008-07-18 09:02:47 51°18.559 2°53.778 17.8053 4.547437 34.675351 3.28279
2008-07-18 09:02:53 51°18.562 2°53.776 17.806 4.547126 34.67269 3.28279
2008-07-18 09:02:57 51°18.564 2°53.774 17.8062 4.547437 34.675351 3.28279
2008-07-18 09:03:02 51°18.566 2°53.772 17.8072 4.546918 34.671594 3.28279
2008-07-18 09:03:07 51°18.569 2°53.77 17.8068 4.546918 34.671594 3.28279
2008-07-18 09:03:12 51°18.571 2°53.768 17.8057 4.547541 34.676916 3.28279
2008-07-18 09:03:17 51°18.574 2°53.765 17.8044 4.546606 34.668932 3.247966
2008-07-18 09:03:22 51°18.576 2°53.763 17.8051 4.547437 34.676029 3.247966
2008-07-18 09:03:27 51°18.579 2°53.76 17.8037 4.547333 34.674464 3.247966
2008-07-18 09:03:32 51°18.581 2°53.758 17.8035 4.547333 34.674464 3.247966
2008-07-18 09:03:37 51°18.584 2°53.755 17.8048 4.547333 34.674464 3.247966
2008-07-18 09:03:42 51°18.586 2°53.753 17.8046 4.547333 34.674464 3.247966
2008-07-18 09:03:47 51°18.588 2°53.751 17.8051 4.546399 34.666481 3.213142
2008-07-18 09:03:52 51°18.591 2°53.748 17.8041 4.547333 34.675142 3.213142
2008-07-18 09:03:57 51°18.593 2°53.746 17.8052 4.54723 34.674933 3.213142
2008-07-18 09:04:02 51°18.596 2°53.744 17.8044 4.54723 34.674933 3.178318
2008-07-18 09:04:07 51°18.598 2°53.742 17.8054 4.54723 34.674933 3.178318
2008-07-18 09:04:12 51°18.601 2°53.74 17.8062 4.54723 34.674933 3.178318
2008-07-18 09:04:17 51°18.603 2°53.739 17.8058 4.54723 34.674933 3.178318
2008-07-18 09:04:22 51°18.606 2°53.737 17.8048 4.546399 34.667836 3.178318
2008-07-18 09:04:27 51°18.609 2°53.737 17.8061 4.547126 34.674046 3.143494
2008-07-18 09:04:32 51°18.612 2°53.736 17.8081 4.547126 34.674046 3.143494
2008-07-18 09:04:37 51°18.615 2°53.737 17.8054 4.547126 34.674046 3.143494
2008-07-18 09:04:42 51°18.619 2°53.737 17.8055 4.547022 34.672481 3.10867
2008-07-18 09:04:47 51°18.622 2°53.739 17.8055 4.539754 34.610392 3.10867
2008-07-18 09:04:53 51°18.626 2°53.742 17.8051 4.546295 34.666271 3.10867
2008-07-18 09:04:57 51°18.628 2°53.744 17.8045 4.546814 34.670707 3.073846
2008-07-18 09:05:02 51°18.631 2°53.747 17.8054 4.547022 34.671803 3.039022
2008-07-18 09:05:07 51°18.633 2°53.751 17.806 4.547022 34.671803 3.039022
2008-07-18 09:05:12 51°18.635 2°53.756 17.8038 4.547022 34.671803 3.004198
2008-07-18 09:05:17 51°18.637 2°53.76 17.8023 4.546918 34.671594 3.004198
2008-07-18 09:05:22 51°18.638 2°53.763 17.8013 4.546918 34.671594 3.004198
2008-07-18 09:05:27 51°18.639 2°53.767 17.802 4.546918 34.671594 3.004198
2008-07-18 09:05:32 51°18.64 2°53.77 17.802 4.546814 34.670707 3.039022
2008-07-18 09:05:37 51°18.64 2°53.773 17.8024 4.546814 34.670707 3.039022
2008-07-18 09:05:42 51°18.64 2°53.775 17.802 4.546814 34.670707 3.039022
2008-07-18 09:05:47 51°18.64 2°53.778 17.8024 4.54671 34.669819 3.073846
2008-07-18 09:05:52 51°18.64 2°53.78 17.8022 4.546607 34.66961 3.073846
2008-07-18 09:05:57 51°18.64 2°53.782 17.802 4.546503 34.669401 3.073846
2008-07-18 09:06:02 51°18.64 2°53.783 17.8022 4.546399 34.669191 3.073846
2008-07-18 09:06:07 51°18.639 2°53.784 17.8021 4.546399 34.669191 3.073846
2008-07-18 09:06:12 51°18.639 2°53.786 17.8029 4.546295 34.668982 3.10867
2008-07-18 09:06:17 51°18.638 2°53.786 17.8024 4.546191 34.668095 3.10867
2008-07-18 09:06:22 51°18.638 2°53.787 17.8026 4.545776 34.664546 3.10867
2008-07-18 09:06:27 51°18.637 2°53.788 17.8027 4.545672 34.663659 3.10867
2008-07-18 09:06:32 51°18.637 2°53.789 17.8031 4.545776 34.663868 3.143494
2008-07-18 09:06:37 51°18.636 2°53.79 17.8031 4.545776 34.663868 3.143494
2008-07-18 09:06:42 51°18.635 2°53.79 17.8026 4.545672 34.662981 3.10867
2008-07-18 09:06:47 51°18.635 2°53.79 17.8032 4.545984 34.665643 3.10867
2008-07-18 09:06:53 51°18.634 2°53.79 17.8043 4.545984 34.664965 3.10867
2008-07-18 09:06:57 51°18.633 2°53.79 17.8043 4.545464 34.661207 3.10867
2008-07-18 09:07:02 51°18.632 2°53.789 17.8033 4.546087 34.665852 3.10867
2008-07-18 09:07:07 51°18.631 2°53.789 17.8036 4.546087 34.665852 3.10867
2008-07-18 09:07:12 51°18.631 2°53.789 17.8021 4.545672 34.662981 3.10867
2008-07-18 09:07:17 51°18.63 2°53.789 17.8037 4.546087 34.665852 3.10867
2008-07-18 09:07:22 51°18.629 2°53.788 17.8033 4.54588 34.664078 3.10867
2008-07-18 09:07:27 51°18.628 2°53.787 17.8036 4.546087 34.665852 3.10867
2008-07-18 09:07:32 51°18.627 2°53.785 17.8036 4.546087 34.665852 3.10867
2008-07-18 09:07:37 51°18.626 2°53.783 17.8016 4.546087 34.665852 3.10867
2008-07-18 09:07:42 51°18.625 2°53.78 17.802 4.546087 34.665852 3.073846
2008-07-18 09:07:47 51°18.624 2°53.778 17.8023 4.545984 34.664965 3.10867
2008-07-18 09:07:52 51°18.623 2°53.776 17.8018 4.546087 34.665852 3.10867
2008-07-18 09:07:57 51°18.622 2°53.774 17.7994 4.545984 34.664965 3.10867
2008-07-18 09:08:03 51°18.621 2°53.772 17.8012 4.545984 34.664965 3.178318
2008-07-18 09:08:09 51°18.619 2°53.769 17.8016 4.545984 34.664965 3.178318
2008-07-18 09:08:14 51°18.618 2°53.768 17.8008 4.54588 34.664078 3.178318
2008-07-18 09:08:20 51°18.617 2°53.766 17.8009 4.545776 34.663868 3.178318
2008-07-18 09:08:26 51°18.616 2°53.765 17.8003 4.545672 34.662981 3.213142
2008-07-18 09:08:31 51°18.615 2°53.764 17.7997 4.545672 34.662981 3.247966
2008-07-18 09:08:36 51°18.614 2°53.763 17.8021 4.545568 34.662772 3.247966
2008-07-18 09:08:41 51°18.613 2°53.762 17.8005 4.545568 34.662772 3.247966
2008-07-18 09:08:45 51°18.612 2°53.762 17.8012 4.545568 34.662094 3.247966
2008-07-18 09:08:50 51°18.612 2°53.762 17.802 4.545464 34.661885 3.247966
2008-07-18 09:08:56 51°18.611 2°53.762 17.8008 4.545464 34.662562 3.28279
2008-07-18 09:09:00 51°18.611 2°53.762 17.8007 4.545464 34.662562 3.247966
2008-07-18 09:09:05 51°18.61 2°53.762 17.801 4.545361 34.661675 3.247966
2008-07-18 09:09:10 51°18.61 2°53.762 17.8024 4.545361 34.661675 3.247966
2008-07-18 09:09:15 51°18.61 2°53.763 17.8034 4.545361 34.661675 3.213142
2008-07-18 09:09:20 51°18.61 2°53.764 17.8022 4.545361 34.660998 3.213142
2008-07-18 09:09:25 51°18.609 2°53.765 17.8022 4.545361 34.660998 3.213142
2008-07-18 09:09:30 51°18.609 2°53.766 17.8039 4.545464 34.661885 3.178318
2008-07-18 09:09:35 51°18.609 2°53.768 17.8036 4.545464 34.661885 3.178318
2008-07-18 09:09:40 51°18.609 2°53.769 17.8037 4.545464 34.661885 3.178318
2008-07-18 09:09:45 51°18.609 2°53.77 17.8029 4.545464 34.661207 3.178318
2008-07-18 09:09:49 51°18.609 2°53.771 17.8037 4.545464 34.66053 3.178318
2008-07-18 09:09:54 51°18.609 2°53.773 17.805 4.545464 34.661207 3.178318
2008-07-18 09:10:00 51°18.608 2°53.774 17.8018 4.545568 34.661417 3.178318
2008-07-18 09:10:05 51°18.608 2°53.776 17.802 4.545568 34.661417 3.178318
2008-07-18 09:10:09 51°18.608 2°53.777 17.8012 4.545568 34.661417 3.178318
2008-07-18 09:10:14 51°18.608 2°53.778 17.8002 4.545568 34.660739 3.178318
2008-07-18 09:10:19 51°18.608 2°53.78 17.8017 4.545568 34.660739 3.178318
2008-07-18 09:10:24 51°18.608 2°53.781 17.8008 4.545568 34.660739 3.143494
2008-07-18 09:10:29 51°18.608 2°53.783 17.8002 4.545568 34.660739 3.143494
2008-07-18 09:10:34 51°18.608 2°53.784 17.7998 4.545568 34.661417 3.10867
2008-07-18 09:10:39 51°18.608 2°53.786 17.7997 4.545568 34.661417 3.10867
2008-07-18 09:10:44 51°18.608 2°53.787 17.7983 4.545464 34.661207 3.10867
2008-07-18 09:10:49 51°18.609 2°53.788 17.7992 4.545464 34.661207 3.10867
2008-07-18 09:10:53 51°18.609 2°53.789 17.7999 4.545361 34.660998 3.073846
2008-07-18 09:10:58 51°18.609 2°53.79 17.8024 4.545361 34.660998 3.073846
2008-07-18 09:11:03 51°18.609 2°53.791 17.8021 4.545361 34.660998 3.073846
2008-07-18 09:11:08 51°18.609 2°53.793 17.8023 4.545361 34.660998 3.073846
2008-07-18 09:11:13 51°18.609 2°53.794 17.8036 4.545361 34.661675 3.039022
2008-07-18 09:11:18 51°18.61 2°53.795 17.8036 4.545257 34.660788 3.073846
2008-07-18 09:11:23 51°18.61 2°53.796 17.8043 4.545257 34.660788 3.073846
2008-07-18 09:11:28 51°18.61 2°53.797 17.805 4.545257 34.660788 3.10867
2008-07-18 09:11:33 51°18.61 2°53.798 17.8072 4.545153 34.659223 3.10867
2008-07-18 09:11:38 51°18.611 2°53.799 17.8072 4.545153 34.659223 3.10867
2008-07-18 09:11:43 51°18.611 2°53.8 17.8074 4.545257 34.659433 3.073846
2008-07-18 09:11:47 51°18.611 2°53.8 17.8095 4.545257 34.659433 3.143494
2008-07-18 09:11:53 51°18.611 2°53.801 17.8093 4.545257 34.658078 3.10867
2008-07-18 09:11:57 51°18.611 2°53.802 17.8094 4.545257 34.658078 3.10867
2008-07-18 09:12:02 51°18.611 2°53.802 17.8102 4.545153 34.656513 3.10867
2008-07-18 09:12:07 51°18.611 2°53.803 17.8105 4.545153 34.656513 3.10867
2008-07-18 09:12:13 51°18.612 2°53.804 17.809 4.545257 34.656723 3.10867
2008-07-18 09:12:17 51°18.612 2°53.804 17.8107 4.54536 34.656255 3.073846
2008-07-18 09:12:22 51°18.612 2°53.804 17.8104 4.54536 34.655578 3.073846
2008-07-18 09:12:27 51°18.612 2°53.805 17.8112 4.54536 34.654901 3.073846
2008-07-18 09:12:32 51°18.612 2°53.805 17.8113 4.54536 34.654901 3.10867
2008-07-18 09:12:37 51°18.612 2°53.805 17.8113 4.54536 34.654901 3.10867
2008-07-18 09:12:42 51°18.612 2°53.805 17.8114 4.545464 34.654433 3.039022
2008-07-18 09:12:47 51°18.612 2°53.806 17.8119 4.545464 34.654433 3.073846
2008-07-18 09:12:52 51°18.612 2°53.806 17.8147 4.54536 34.654223 3.073846
2008-07-18 09:12:57 51°18.611 2°53.807 17.8116 4.54536 34.653546 3.073846
2008-07-18 09:13:02 51°18.611 2°53.807 17.8176 4.54536 34.652869 3.073846
2008-07-18 09:13:07 51°18.611 2°53.807 17.8164 4.54536 34.652869 3.073846
2008-07-18 09:13:12 51°18.611 2°53.808 17.8141 4.54536 34.652869 3.039022
2008-07-18 09:13:17 51°18.611 2°53.808 17.8154 4.54536 34.652192 3.039022
2008-07-18 09:13:22 51°18.611 2°53.808 17.8161 4.54536 34.651515 3.039022
2008-07-18 09:13:27 51°18.61 2°53.808 17.8149 4.54536 34.651515 3.073846
2008-07-18 09:13:32 51°18.61 2°53.808 17.8147 4.54536 34.650837 3.039022
2008-07-18 09:13:37 51°18.61 2°53.808 17.8173 4.54536 34.650837 3.039022
2008-07-18 09:13:42 51°18.609 2°53.808 17.8171 4.54536 34.65016 3.073846
2008-07-18 09:13:47 51°18.609 2°53.808 17.8158 4.54536 34.65016 3.039022
2008-07-18 09:13:53 51°18.609 2°53.808 17.8167 4.545257 34.649274 3.039022
2008-07-18 09:13:57 51°18.608 2°53.808 17.8179 4.545257 34.648596 3.073846
2008-07-18 09:14:02 51°18.608 2°53.808 17.816 4.545257 34.648596 3.039022
2008-07-18 09:14:07 51°18.608 2°53.808 17.8151 4.545257 34.648596 3.039022
2008-07-18 09:14:12 51°18.608 2°53.807 17.8158 4.54536 34.649483 3.073846
2008-07-18 09:14:17 51°18.607 2°53.808 17.8153 4.54536 34.648806 3.073846
2008-07-18 09:14:22 51°18.607 2°53.808 17.8152 4.54536 34.648806 3.073846
2008-07-18 09:14:27 51°18.606 2°53.808 17.8173 4.54536 34.648806 3.073846
2008-07-18 09:14:32 51°18.606 2°53.808 17.8165 4.54536 34.648806 3.073846
2008-07-18 09:14:37 51°18.606 2°53.808 17.8154 4.54536 34.648806 3.073846
2008-07-18 09:14:42 51°18.605 2°53.808 17.8156 4.54536 34.649483 3.039022
2008-07-18 09:14:47 51°18.605 2°53.808 17.8156 4.54536 34.649483 3.10867
2008-07-18 09:14:52 51°18.604 2°53.808 17.8176 4.54536 34.649483 3.039022
2008-07-18 09:14:57 51°18.604 2°53.808 17.8188 4.54536 34.649483 3.073846
2008-07-18 09:15:02 51°18.604 2°53.808 17.8194 4.54536 34.648806 3.039022
2008-07-18 09:15:07 51°18.603 2°53.808 17.8216 4.54536 34.648806 3.039022
2008-07-18 09:15:12 51°18.603 2°53.808 17.8205 4.54536 34.648806 3.039022
2008-07-18 09:15:17 51°18.603 2°53.808 17.8213 4.545257 34.647919 3.039022
2008-07-18 09:15:22 51°18.602 2°53.808 17.8215 4.54536 34.648806 3.039022
2008-07-18 09:15:27 51°18.602 2°53.808 17.8229 4.54536 34.648129 3.004198
2008-07-18 09:15:32 51°18.601 2°53.808 17.8234 4.54536 34.647452 3.004198
2008-07-18 09:15:37 51°18.601 2°53.808 17.8237 4.54536 34.647452 3.004198
2008-07-18 09:15:42 51°18.601 2°53.808 17.8262 4.54536 34.646775 3.004198
2008-07-18 09:15:47 51°18.6 2°53.808 17.8272 4.54536 34.646098 2.969374
2008-07-18 09:15:53 51°18.6 2°53.808 17.8274 4.54536 34.645421 2.93455
2008-07-18 09:15:57 51°18.6 2°53.808 17.8267 4.545464 34.645631 2.93455
2008-07-18 09:16:02 51°18.6 2°53.808 17.8274 4.545568 34.645841 2.93455
2008-07-18 09:16:07 51°18.6 2°53.808 17.8273 4.545568 34.645841 2.93455
2008-07-18 09:16:12 51°18.6 2°53.807 17.8281 4.545568 34.644487 2.93455
2008-07-18 09:16:17 51°18.6 2°53.807 17.8295 4.545672 34.644697 2.899726
2008-07-18 09:16:22 51°18.6 2°53.807 17.8288 4.545672 34.644021 2.864902
2008-07-18 09:16:27 51°18.6 2°53.806 17.8282 4.545776 34.643554 2.899726
2008-07-18 09:16:32 51°18.6 2°53.806 17.8293 4.545776 34.643554 2.830078
2008-07-18 09:16:37 51°18.6 2°53.806 17.8286 4.545776 34.643554 2.830078
2008-07-18 09:16:42 51°18.6 2°53.805 17.8286 4.545776 34.643554 2.830078
2008-07-18 09:16:47 51°18.6 2°53.805 17.8284 4.545672 34.64199 2.830078
2008-07-18 09:16:52 51°18.6 2°53.805 17.8299 4.545672 34.64199 2.830078
2008-07-18 09:16:57 51°18.6 2°53.804 17.8298 4.545672 34.641314 2.830078
2008-07-18 09:17:02 51°18.6 2°53.804 17.8298 4.545672 34.641314 2.830078
2008-07-18 09:17:07 51°18.601 2°53.803 17.83 4.545672 34.641314 2.830078
2008-07-18 09:17:12 51°18.601 2°53.803 17.8301 4.545672 34.641314 2.795254
2008-07-18 09:17:17 51°18.601 2°53.802 17.8308 4.545672 34.641314 2.795254
2008-07-18 09:17:22 51°18.601 2°53.802 17.8309 4.545568 34.639751 2.795254
2008-07-18 09:17:27 51°18.601 2°53.802 17.8304 4.545568 34.640427 2.795254
2008-07-18 09:17:32 51°18.601 2°53.801 17.8309 4.545568 34.639751 2.795254
2008-07-18 09:17:37 51°18.601 2°53.801 17.8323 4.545568 34.639751 2.795254
2008-07-18 09:17:42 51°18.601 2°53.801 17.8333 4.545568 34.639074 2.795254
2008-07-18 09:17:47 51°18.601 2°53.801 17.8342 4.545568 34.639751 2.795254
2008-07-18 09:17:53 51°18.601 2°53.8 17.8342 4.545568 34.639074 2.795254
2008-07-18 09:17:57 51°18.601 2°53.8 17.8358 4.545568 34.639074 2.795254
2008-07-18 09:18:02 51°18.601 2°53.799 17.8365 4.545568 34.639074 2.795254
2008-07-18 09:18:07 51°18.601 2°53.799 17.8391 4.545568 34.639074 2.795254
2008-07-18 09:18:12 51°18.601 2°53.799 17.8391 4.545568 34.638397 2.795254
2008-07-18 09:18:17 51°18.601 2°53.799 17.8404 4.545672 34.638607 2.76043
2008-07-18 09:18:22 51°18.601 2°53.799 17.8408 4.545672 34.637931 2.795254
2008-07-18 09:18:27 51°18.601 2°53.798 17.8429 4.543699 34.620413 2.795254
2008-07-18 09:18:33 51°18.601 2°53.798 17.8445 4.542972 34.613532 2.76043
2008-07-18 09:18:37 51°18.601 2°53.798 17.8462 4.542972 34.613532 2.76043
2008-07-18 09:18:42 51°18.601 2°53.798 17.8469 4.543076 34.613067 2.76043
2008-07-18 09:18:47 51°18.601 2°53.797 17.8487 4.542868 34.609942 2.725606
2008-07-18 09:18:52 51°18.601 2°53.797 17.849 4.543699 34.616356 2.725606
2008-07-18 09:18:57 51°18.601 2°53.797 17.8484 4.543283 34.61146 2.725606
2008-07-18 09:19:02 51°18.601 2°53.796 17.8506 4.543179 34.609898 2.690782
2008-07-18 09:19:07 51°18.601 2°53.796 17.85 4.543179 34.609898 2.690782
2008-07-18 09:19:12 51°18.601 2°53.796 17.852 4.543699 34.612977 2.655957
2008-07-18 09:19:17 51°18.601 2°53.796 17.8505 4.543595 34.610064 2.655957
2008-07-18 09:19:22 51°18.601 2°53.796 17.8504 4.543595 34.608712 2.690782
2008-07-18 09:19:27 51°18.601 2°53.796 17.852 4.543802 34.609809 2.690782
2008-07-18 09:19:32 51°18.601 2°53.796 17.8535 4.545048 34.61909 2.655957
2008-07-18 09:19:37 51°18.601 2°53.796 17.8529 4.545048 34.61909 2.655957
2008-07-18 09:19:42 51°18.601 2°53.796 17.8547 4.546087 34.627951 2.655957
2008-07-18 09:19:47 51°18.601 2°53.796 17.8528 4.546294 34.629047 2.655957
2008-07-18 09:19:53 51°18.601 2°53.796 17.8534 4.546398 34.629933 2.655957
2008-07-18 09:19:57 51°18.601 2°53.796 17.8542 4.546191 34.628161 2.655957
2008-07-18 09:20:02 51°18.601 2°53.796 17.8539 4.546398 34.629257 2.655957
2008-07-18 09:20:07 51°18.601 2°53.797 17.8551 4.546398 34.629257 2.655957
2008-07-18 09:20:12 51°18.601 2°53.796 17.8554 4.546398 34.628582 2.690782
2008-07-18 09:20:17 51°18.601 2°53.796 17.8559 4.546813 34.63145 2.655957
2008-07-18 09:20:22 51°18.601 2°53.796 17.8562 4.54671 34.629888 2.655957
2008-07-18 09:20:27 51°18.601 2°53.796 17.8577 4.546606 34.629002 2.690782
2008-07-18 09:20:33 51°18.601 2°53.796 17.8554 4.546813 34.630774 2.655957
2008-07-18 09:20:37 51°18.601 2°53.796 17.8567 4.546813 34.630774 2.655957
2008-07-18 09:20:42 51°18.601 2°53.796 17.8573 4.546606 34.628326 2.655957
2008-07-18 09:20:47 51°18.601 2°53.796 17.8569 4.54671 34.629212 2.690782
2008-07-18 09:20:53 51°18.601 2°53.796 17.8573 4.546502 34.626764 2.655957
2008-07-18 09:20:57 51°18.601 2°53.796 17.8595 4.54671 34.62786 2.690782
2008-07-18 09:21:02 51°18.601 2°53.796 17.8593 4.546813 34.628746 2.655957
2008-07-18 09:21:07 51°18.601 2°53.795 17.8582 4.546813 34.628746 2.655957
2008-07-18 09:21:12 51°18.601 2°53.795 17.8599 4.546917 34.629632 2.690782
2008-07-18 09:21:17 51°18.601 2°53.795 17.8586 4.546398 34.624526 2.690782
2008-07-18 09:21:22 51°18.601 2°53.795 17.8588 4.546917 34.62828 2.690782
2008-07-18 09:21:27 51°18.601 2°53.795 17.8579 4.546813 34.627394 2.655957
2008-07-18 09:21:32 51°18.601 2°53.795 17.8582 4.54671 34.625833 2.655957
2008-07-18 09:21:37 51°18.601 2°53.795 17.8595 4.54671 34.625833 2.655957
2008-07-18 09:21:42 51°18.601 2°53.795 17.8591 4.54671 34.625157 2.655957
2008-07-18 09:21:47 51°18.601 2°53.795 17.8586 4.546813 34.625367 2.655957
2008-07-18 09:21:53 51°18.601 2°53.795 17.8591 4.54671 34.625157 2.655957
2008-07-18 09:21:57 51°18.601 2°53.795 17.8595 4.546606 34.624271 2.655957
2008-07-18 09:22:02 51°18.601 2°53.795 17.8602 4.546606 34.624271 2.621133
2008-07-18 09:22:07 51°18.601 2°53.795 17.8605 4.546606 34.624271 2.621133
2008-07-18 09:22:12 51°18.601 2°53.795 17.8592 4.546606 34.624271 2.655957
2008-07-18 09:22:17 51°18.601 2°53.795 17.8602 4.546606 34.624271 2.655957
2008-07-18 09:22:22 51°18.601 2°53.795 17.8623 4.546606 34.624271 2.655957
2008-07-18 09:22:27 51°18.6 2°53.795 17.8618 4.546502 34.623385 2.655957
2008-07-18 09:22:33 51°18.6 2°53.795 17.8638 4.546502 34.622709 2.690782
2008-07-18 09:22:37 51°18.6 2°53.794 17.8629 4.546502 34.622709 2.690782
2008-07-18 09:22:42 51°18.601 2°53.795 17.862 4.546606 34.62292 2.655957
2008-07-18 09:22:47 51°18.6 2°53.795 17.8652 4.546502 34.622034 2.690782
2008-07-18 09:22:53 51°18.6 2°53.794 17.8639 4.546502 34.622034 2.690782
2008-07-18 09:22:57 51°18.6 2°53.794 17.864 4.546502 34.621358 2.690782
2008-07-18 09:23:02 51°18.601 2°53.794 17.8648 4.546606 34.621568 2.725606
2008-07-18 09:23:07 51°18.6 2°53.794 17.8658 4.546606 34.621568 2.725606
2008-07-18 09:23:13 51°18.6 2°53.793 17.8645 4.546606 34.620893 2.725606
2008-07-18 09:23:17 51°18.601 2°53.793 17.8647 4.546502 34.620007 2.725606
2008-07-18 09:23:22 51°18.601 2°53.793 17.8652 4.546502 34.620007 2.690782
2008-07-18 09:23:27 51°18.601 2°53.793 17.8666 4.546502 34.619331 2.725606
2008-07-18 09:23:33 51°18.601 2°53.793 17.8665 4.546502 34.618656 2.725606